Time,TemperatureF,DewpointF,PressureIn,WindDirection,WindDirectionDegrees,WindSpeedMPH,WindSpeedGustMPH,Humidity,HourlyPrecipIn,Conditions,Clouds,dailyrainin,SoftwareType,DateUTC
2013-01-26 00:00:00,49.0,35.3,29.78,NW,315,3.6,3.6,59,0.00,,,0.00,WUHU216HW,2013-01-26 07:00:00,
2013-01-26 00:03:00,48.8,35.6,29.78,NW,315,2.5,3.6,60,0.00,,,0.00,WUHU216HW,2013-01-26 07:03:00,
2013-01-26 00:04:00,48.6,35.5,29.77,NNW,338,2.0,3.6,60,0.00,,,0.00,WUHU216HW,2013-01-26 07:04:00,
2013-01-26 00:05:00,48.6,35.5,29.78,NNW,338,1.8,3.6,60,0.00,,,0.00,WUHU216HW,2013-01-26 07:05:00,
2013-01-26 00:08:00,48.4,35.3,29.77,West,270,0.7,3.6,60,0.00,,,0.00,WUHU216HW,2013-01-26 07:08:00,
2013-01-26 00:09:00,48.4,35.3,29.78,West,270,0.9,3.6,60,0.00,,,0.00,WUHU216HW,2013-01-26 07:09:00,
2013-01-26 00:10:00,48.4,35.3,29.77,WNW,293,1.6,2.9,60,0.00,,,0.00,WUHU216HW,2013-01-26 07:10:00,
2013-01-26 00:13:00,48.4,35.3,29.78,West,270,1.6,2.5,60,0.00,,,0.00,WUHU216HW,2013-01-26 07:13:00,
2013-01-26 00:14:00,48.4,34.8,29.78,NW,315,1.8,2.5,59,0.00,,,0.00,WUHU216HW,2013-01-26 07:14:00,
2013-01-26 00:15:00,48.4,34.8,29.78,NW,315,1.8,2.5,59,0.00,,,0.00,WUHU216HW,2013-01-26 07:15:00,
2013-01-26 00:18:00,48.2,34.7,29.78,WNW,293,1.6,2.5,59,0.00,,,0.00,WUHU216HW,2013-01-26 07:18:00,
2013-01-26 00:20:00,48.2,34.7,29.78,West,270,1.1,2.5,59,0.00,,,0.00,WUHU216HW,2013-01-26 07:20:00,
2013-01-26 00:21:00,48.4,34.8,29.78,WNW,293,1.3,2.5,59,0.00,,,0.00,WUHU216HW,2013-01-26 07:21:00,
2013-01-26 00:23:00,48.2,34.7,29.78,WNW,293,1.8,1.8,59,0.00,,,0.00,WUHU216HW,2013-01-26 07:23:00,
2013-01-26 00:25:00,48.2,34.7,29.78,West,270,1.6,1.8,59,0.00,,,0.00,WUHU216HW,2013-01-26 07:25:00,
2013-01-26 00:26:00,48.2,34.7,29.78,West,270,0.7,1.8,59,0.00,,,0.00,WUHU216HW,2013-01-26 07:26:00,
2013-01-26 00:29:00,48.2,34.7,29.78,WNW,293,1.1,1.8,59,0.00,,,0.00,WUHU216HW,2013-01-26 07:29:00,
2013-01-26 00:30:00,48.2,34.7,29.78,West,270,0.9,1.8,59,0.00,,,0.00,WUHU216HW,2013-01-26 07:30:00,
2013-01-26 00:31:00,48.4,34.8,29.78,WNW,293,1.3,1.8,59,0.00,,,0.00,WUHU216HW,2013-01-26 07:31:00,
2013-01-26 00:34:00,48.2,34.7,29.78,West,270,1.8,1.8,59,0.00,,,0.00,WUHU216HW,2013-01-26 07:34:00,
2013-01-26 00:35:00,48.4,34.8,29.78,West,270,1.1,1.8,59,0.00,,,0.00,WUHU216HW,2013-01-26 07:35:00,
2013-01-26 00:36:00,48.4,34.8,29.78,WNW,293,1.1,1.8,59,0.00,,,0.00,WUHU216HW,2013-01-26 07:36:00,
2013-01-26 00:39:00,48.4,34.8,29.78,NE,45,0.0,1.8,59,0.00,,,0.00,WUHU216HW,2013-01-26 07:39:00,
2013-01-26 00:40:00,48.4,34.8,29.78,NE,45,0.2,1.8,59,0.00,,,0.00,WUHU216HW,2013-01-26 07:40:00,
2013-01-26 00:41:00,48.4,34.8,29.77,NE,45,0.0,1.8,59,0.00,,,0.00,WUHU216HW,2013-01-26 07:41:00,
2013-01-26 00:44:00,48.2,34.7,29.77,NE,45,0.4,1.3,59,0.00,,,0.00,WUHU216HW,2013-01-26 07:44:00,
2013-01-26 00:45:00,48.2,34.7,29.77,NE,45,0.0,1.3,59,0.00,,,0.00,WUHU216HW,2013-01-26 07:45:00,
2013-01-26 00:46:00,48.2,34.7,29.77,NE,45,0.0,1.1,59,0.00,,,0.00,WUHU216HW,2013-01-26 07:46:00,
2013-01-26 00:49:00,48.2,34.7,29.77,NNW,338,1.6,1.6,59,0.00,,,0.00,WUHU216HW,2013-01-26 07:49:00,
2013-01-26 00:50:00,48.2,34.7,29.77,NNW,338,1.3,1.6,59,0.00,,,0.00,WUHU216HW,2013-01-26 07:50:00,
2013-01-26 00:51:00,48.2,34.7,29.77,NNW,338,1.3,1.6,59,0.00,,,0.00,WUHU216HW,2013-01-26 07:51:00,
2013-01-26 00:52:00,48.2,34.7,29.77,West,270,1.1,1.6,59,0.00,,,0.00,WUHU216HW,2013-01-26 07:52:00,
2013-01-26 00:54:00,48.1,34.5,29.77,NW,315,0.7,1.6,59,0.00,,,0.00,WUHU216HW,2013-01-26 07:54:00,
2013-01-26 00:55:00,48.1,34.5,29.77,NNW,338,1.1,1.6,59,0.00,,,0.00,WUHU216HW,2013-01-26 07:55:00,
2013-01-26 00:56:00,48.1,34.5,29.77,NNW,338,1.1,1.6,59,0.00,,,0.00,WUHU216HW,2013-01-26 07:56:00,
2013-01-26 00:57:00,48.1,34.5,29.77,NNW,338,0.9,1.6,59,0.00,,,0.00,WUHU216HW,2013-01-26 07:57:00,
2013-01-26 00:59:00,47.9,34.3,29.77,NW,315,0.9,1.3,59,0.00,,,0.00,WUHU216HW,2013-01-26 07:59:00,
2013-01-26 01:01:00,47.9,34.7,29.77,NW,315,0.4,1.1,60,0.00,,,0.00,WUHU216HW,2013-01-26 08:01:00,
2013-01-26 01:02:00,47.9,34.3,29.76,NW,315,1.1,1.1,59,0.00,,,0.00,WUHU216HW,2013-01-26 08:02:00,
2013-01-26 01:05:00,47.9,34.7,29.76,NNW,338,1.1,1.1,60,0.00,,,0.00,WUHU216HW,2013-01-26 08:05:00,
2013-01-26 01:06:00,47.9,34.7,29.76,NNW,338,1.1,1.6,60,0.00,,,0.00,WUHU216HW,2013-01-26 08:06:00,
2013-01-26 01:07:00,47.9,34.7,29.76,NNW,338,1.1,1.6,60,0.00,,,0.00,WUHU216HW,2013-01-26 08:07:00,
2013-01-26 01:10:00,47.9,34.7,29.76,NNW,338,0.9,1.8,60,0.00,,,0.00,WUHU216HW,2013-01-26 08:10:00,
2013-01-26 01:11:00,47.9,34.7,29.76,NNW,338,0.7,1.8,60,0.00,,,0.00,WUHU216HW,2013-01-26 08:11:00,
2013-01-26 01:12:00,47.9,34.7,29.76,NNW,338,1.1,1.8,60,0.00,,,0.00,WUHU216HW,2013-01-26 08:12:00,
2013-01-26 01:15:00,47.9,34.7,29.76,NNW,338,0.4,1.8,60,0.00,,,0.00,WUHU216HW,2013-01-26 08:15:00,
2013-01-26 01:16:00,47.9,34.7,29.76,NW,315,0.9,1.8,60,0.00,,,0.00,WUHU216HW,2013-01-26 08:16:00,
2013-01-26 01:17:00,47.9,34.7,29.75,NW,315,1.8,1.8,60,0.00,,,0.00,WUHU216HW,2013-01-26 08:17:00,
2013-01-26 01:20:00,47.9,34.7,29.75,NNW,338,1.8,1.8,60,0.00,,,0.00,WUHU216HW,2013-01-26 08:20:00,
2013-01-26 01:22:00,47.9,34.7,29.75,NNW,338,0.9,1.8,60,0.00,,,0.00,WUHU216HW,2013-01-26 08:22:00,
2013-01-26 01:25:00,47.9,34.7,29.75,NNW,338,1.1,1.8,60,0.00,,,0.00,WUHU216HW,2013-01-26 08:25:00,
2013-01-26 01:27:00,47.9,34.7,29.75,NNW,338,0.4,1.8,60,0.00,,,0.00,WUHU216HW,2013-01-26 08:27:00,
2013-01-26 01:30:00,47.9,34.7,29.76,NNW,338,0.4,1.3,60,0.00,,,0.00,WUHU216HW,2013-01-26 08:30:00,
2013-01-26 01:32:00,47.9,34.7,29.76,NNW,338,0.4,1.3,60,0.00,,,0.00,WUHU216HW,2013-01-26 08:32:00,
2013-01-26 01:33:00,47.9,35.1,29.76,NNW,338,0.7,1.1,61,0.00,,,0.00,WUHU216HW,2013-01-26 08:33:00,
2013-01-26 01:35:00,47.9,35.1,29.76,NNW,338,0.4,0.9,61,0.00,,,0.00,WUHU216HW,2013-01-26 08:35:00,
2013-01-26 01:37:00,47.9,35.1,29.76,NNW,338,0.4,0.9,61,0.00,,,0.00,WUHU216HW,2013-01-26 08:37:00,
2013-01-26 01:38:00,47.9,35.1,29.76,NNW,338,0.0,0.9,61,0.00,,,0.00,WUHU216HW,2013-01-26 08:38:00,
2013-01-26 01:40:00,47.9,35.1,29.75,NE,45,0.7,0.9,61,0.00,,,0.00,WUHU216HW,2013-01-26 08:40:00,
2013-01-26 01:42:00,47.9,35.1,29.75,NE,45,0.4,0.9,61,0.00,,,0.00,WUHU216HW,2013-01-26 08:42:00,
2013-01-26 01:43:00,47.9,35.1,29.75,NE,45,0.4,0.9,61,0.00,,,0.00,WUHU216HW,2013-01-26 08:43:00,
2013-01-26 01:45:00,47.7,34.9,29.75,ESE,113,0.9,1.1,61,0.00,,,0.00,WUHU216HW,2013-01-26 08:45:00,
2013-01-26 01:47:00,47.7,34.9,29.75,ESE,113,1.1,1.1,61,0.00,,,0.00,WUHU216HW,2013-01-26 08:47:00,
2013-01-26 01:48:00,47.7,34.9,29.75,ESE,113,0.4,1.1,61,0.00,,,0.00,WUHU216HW,2013-01-26 08:48:00,
2013-01-26 01:50:00,47.5,34.7,29.75,SSE,158,0.7,1.1,61,0.00,,,0.00,WUHU216HW,2013-01-26 08:50:00,
2013-01-26 01:52:00,47.3,34.6,29.76,SSE,158,1.1,1.1,61,0.00,,,0.00,WUHU216HW,2013-01-26 08:52:00,
2013-01-26 01:53:00,47.3,34.6,29.76,SSE,158,1.1,1.1,61,0.00,,,0.00,WUHU216HW,2013-01-26 08:53:00,
2013-01-26 01:56:00,47.0,33.8,29.76,South,180,1.3,1.3,60,0.00,,,0.00,WUHU216HW,2013-01-26 08:56:00,
2013-01-26 01:57:00,46.8,34.0,29.76,SSE,158,1.6,1.8,61,0.00,,,0.00,WUHU216HW,2013-01-26 08:57:00,
2013-01-26 01:58:00,46.8,34.0,29.76,SSE,158,1.6,1.8,61,0.00,,,0.00,WUHU216HW,2013-01-26 08:58:00,
2013-01-26 02:01:00,46.4,34.1,29.76,SSE,158,1.1,1.8,62,0.00,,,0.00,WUHU216HW,2013-01-26 09:01:00,
2013-01-26 02:02:00,46.3,33.9,29.76,South,180,1.3,1.8,62,0.00,,,0.00,WUHU216HW,2013-01-26 09:02:00,
2013-01-26 02:03:00,46.3,33.9,29.76,South,180,1.1,1.8,62,0.00,,,0.00,WUHU216HW,2013-01-26 09:03:00,
2013-01-26 02:06:00,46.1,33.8,29.76,South,180,1.3,1.8,62,0.00,,,0.00,WUHU216HW,2013-01-26 09:06:00,
2013-01-26 02:07:00,45.9,34.0,29.76,SSW,203,1.3,1.6,63,0.00,,,0.00,WUHU216HW,2013-01-26 09:07:00,
2013-01-26 02:08:00,45.9,34.0,29.76,SSW,203,1.3,1.6,63,0.00,,,0.00,WUHU216HW,2013-01-26 09:08:00,
2013-01-26 02:11:00,45.9,34.0,29.76,SSW,203,0.4,1.6,63,0.00,,,0.00,WUHU216HW,2013-01-26 09:11:00,
2013-01-26 02:12:00,45.9,34.0,29.76,SSW,203,0.2,1.6,63,0.00,,,0.00,WUHU216HW,2013-01-26 09:12:00,
2013-01-26 02:13:00,45.9,34.0,29.75,SSW,203,0.0,1.6,63,0.00,,,0.00,WUHU216HW,2013-01-26 09:13:00,
2013-01-26 02:16:00,46.1,34.1,29.75,SSW,203,0.0,1.3,63,0.00,,,0.00,WUHU216HW,2013-01-26 09:16:00,
2013-01-26 02:17:00,46.1,34.1,29.75,NW,315,0.0,1.3,63,0.00,,,0.00,WUHU216HW,2013-01-26 09:17:00,
2013-01-26 02:18:00,46.1,34.1,29.75,NW,315,0.0,1.1,63,0.00,,,0.00,WUHU216HW,2013-01-26 09:18:00,
2013-01-26 02:21:00,46.3,34.3,29.75,NW,315,0.0,0.2,63,0.00,,,0.00,WUHU216HW,2013-01-26 09:21:00,
2013-01-26 02:23:00,46.3,34.3,29.75,NW,315,0.7,0.7,63,0.00,,,0.00,WUHU216HW,2013-01-26 09:23:00,
2013-01-26 02:24:00,46.3,34.3,29.75,NNW,338,0.9,0.9,63,0.00,,,0.00,WUHU216HW,2013-01-26 09:24:00,
2013-01-26 02:26:00,46.4,34.5,29.75,NNW,338,0.4,0.9,63,0.00,,,0.00,WUHU216HW,2013-01-26 09:26:00,
2013-01-26 02:28:00,46.4,34.5,29.75,NNW,338,0.4,0.9,63,0.00,,,0.00,WUHU216HW,2013-01-26 09:28:00,
2013-01-26 02:29:00,46.4,34.5,29.75,NNW,338,0.4,0.9,63,0.00,,,0.00,WUHU216HW,2013-01-26 09:29:00,
2013-01-26 02:32:00,46.4,34.5,29.75,NNW,338,0.0,0.9,63,0.00,,,0.00,WUHU216HW,2013-01-26 09:32:00,
2013-01-26 02:33:00,46.4,34.5,29.75,NNW,338,0.0,0.7,63,0.00,,,0.00,WUHU216HW,2013-01-26 09:33:00,
2013-01-26 02:34:00,46.4,34.5,29.75,NNW,338,0.0,0.7,63,0.00,,,0.00,WUHU216HW,2013-01-26 09:34:00,
2013-01-26 02:37:00,46.4,34.5,29.74,NNW,338,0.0,0.4,63,0.00,,,0.00,WUHU216HW,2013-01-26 09:37:00,
2013-01-26 02:38:00,46.4,34.5,29.74,NNW,338,0.0,0.0,63,0.00,,,0.00,WUHU216HW,2013-01-26 09:38:00,
2013-01-26 02:39:00,46.6,34.7,29.74,NNW,338,0.0,0.0,63,0.00,,,0.00,WUHU216HW,2013-01-26 09:39:00,
2013-01-26 02:42:00,46.6,34.7,29.74,NNW,338,0.0,0.0,63,0.00,,,0.00,WUHU216HW,2013-01-26 09:42:00,
2013-01-26 02:43:00,46.6,34.7,29.74,NNW,338,0.0,0.0,63,0.00,,,0.00,WUHU216HW,2013-01-26 09:43:00,
2013-01-26 02:44:00,46.6,34.7,29.74,NNW,338,0.0,0.0,63,0.00,,,0.00,WUHU216HW,2013-01-26 09:44:00,
2013-01-26 02:47:00,46.6,34.7,29.74,NNW,338,0.0,0.0,63,0.00,,,0.00,WUHU216HW,2013-01-26 09:47:00,
2013-01-26 02:48:00,46.8,34.8,29.74,NNW,338,0.4,0.4,63,0.00,,,0.00,WUHU216HW,2013-01-26 09:48:00,
2013-01-26 02:49:00,46.8,34.8,29.74,NNW,338,0.4,0.4,63,0.00,,,0.00,WUHU216HW,2013-01-26 09:49:00,
2013-01-26 02:52:00,46.4,34.5,29.74,ESE,113,0.4,0.4,63,0.00,,,0.00,WUHU216HW,2013-01-26 09:52:00,
2013-01-26 02:54:00,46.4,34.5,29.74,ESE,113,0.4,0.4,63,0.00,,,0.00,WUHU216HW,2013-01-26 09:54:00,
2013-01-26 02:58:00,46.3,34.3,29.74,ESE,113,0.4,0.7,63,0.00,,,0.00,WUHU216HW,2013-01-26 09:58:00,
2013-01-26 02:59:00,46.1,34.1,29.74,ESE,113,0.0,0.7,63,0.00,,,0.00,WUHU216HW,2013-01-26 09:59:00,
2013-01-26 03:00:00,46.1,34.1,29.74,SE,135,0.4,0.7,63,0.00,,,0.00,WUHU216HW,2013-01-26 10:00:00,
2013-01-26 03:03:00,45.9,34.0,29.74,SE,135,0.4,0.7,63,0.00,,,0.00,WUHU216HW,2013-01-26 10:03:00,
2013-01-26 03:04:00,45.9,34.0,29.74,SE,135,0.2,0.7,63,0.00,,,0.00,WUHU216HW,2013-01-26 10:04:00,
2013-01-26 03:05:00,45.9,34.0,29.74,SE,135,0.4,0.7,63,0.00,,,0.00,WUHU216HW,2013-01-26 10:05:00,
2013-01-26 03:08:00,45.7,33.9,29.74,South,180,1.1,1.1,63,0.00,,,0.00,WUHU216HW,2013-01-26 10:08:00,
2013-01-26 03:09:00,45.7,33.9,29.74,South,180,1.1,1.1,63,0.00,,,0.00,WUHU216HW,2013-01-26 10:09:00,
2013-01-26 03:10:00,45.7,33.9,29.74,South,180,0.9,1.1,63,0.00,,,0.00,WUHU216HW,2013-01-26 10:10:00,
2013-01-26 03:13:00,45.7,34.2,29.74,South,180,0.4,1.1,64,0.00,,,0.00,WUHU216HW,2013-01-26 10:13:00,
2013-01-26 03:14:00,45.5,34.0,29.74,South,180,0.4,1.1,64,0.00,,,0.00,WUHU216HW,2013-01-26 10:14:00,
2013-01-26 03:15:00,45.5,34.0,29.74,South,180,0.4,1.1,64,0.00,,,0.00,WUHU216HW,2013-01-26 10:15:00,
2013-01-26 03:18:00,45.5,34.0,29.74,South,180,0.0,1.1,64,0.00,,,0.00,WUHU216HW,2013-01-26 10:18:00,
2013-01-26 03:19:00,45.7,34.2,29.74,South,180,0.0,0.9,64,0.00,,,0.00,WUHU216HW,2013-01-26 10:19:00,
2013-01-26 03:20:00,45.7,34.2,29.74,South,180,0.0,0.7,64,0.00,,,0.00,WUHU216HW,2013-01-26 10:20:00,
2013-01-26 03:23:00,45.7,34.2,29.73,SSW,203,0.0,0.4,64,0.00,,,0.00,WUHU216HW,2013-01-26 10:23:00,
2013-01-26 03:24:00,45.7,34.2,29.73,WNW,293,0.0,0.4,64,0.00,,,0.00,WUHU216HW,2013-01-26 10:24:00,
2013-01-26 03:25:00,45.7,34.2,29.73,WNW,293,0.0,0.0,64,0.00,,,0.00,WUHU216HW,2013-01-26 10:25:00,
2013-01-26 03:29:00,45.7,34.2,29.73,NNW,338,1.1,1.3,64,0.00,,,0.00,WUHU216HW,2013-01-26 10:29:00,
2013-01-26 03:30:00,45.7,34.2,29.73,NW,315,1.8,1.8,64,0.00,,,0.00,WUHU216HW,2013-01-26 10:30:00,
2013-01-26 03:34:00,45.7,34.2,29.73,NNW,338,1.6,1.8,64,0.00,,,0.00,WUHU216HW,2013-01-26 10:34:00,
2013-01-26 03:35:00,45.7,34.2,29.72,NNW,338,1.3,1.8,64,0.00,,,0.00,WUHU216HW,2013-01-26 10:35:00,
2013-01-26 03:39:00,45.7,34.2,29.72,NNW,338,0.7,1.8,64,0.00,,,0.00,WUHU216HW,2013-01-26 10:39:00,
2013-01-26 03:40:00,45.7,34.2,29.72,NNW,338,0.4,1.8,64,0.00,,,0.00,WUHU216HW,2013-01-26 10:40:00,
2013-01-26 03:44:00,45.7,34.2,29.72,NW,315,0.0,1.3,64,0.00,,,0.00,WUHU216HW,2013-01-26 10:44:00,
2013-01-26 03:45:00,45.7,34.2,29.72,NNW,338,0.0,1.1,64,0.00,,,0.00,WUHU216HW,2013-01-26 10:45:00,
2013-01-26 03:49:00,45.7,34.2,29.72,NNW,338,0.0,0.4,64,0.00,,,0.00,WUHU216HW,2013-01-26 10:49:00,
2013-01-26 03:50:00,45.9,34.4,29.72,NNW,338,0.0,0.4,64,0.00,,,0.00,WUHU216HW,2013-01-26 10:50:00,
2013-01-26 03:54:00,45.9,34.4,29.72,NNW,338,0.0,0.4,64,0.00,,,0.00,WUHU216HW,2013-01-26 10:54:00,
2013-01-26 03:55:00,46.1,34.6,29.72,NNW,338,0.0,0.4,64,0.00,,,0.00,WUHU216HW,2013-01-26 10:55:00,
2013-01-26 03:59:00,46.1,34.6,29.72,NNW,338,0.0,0.0,64,0.00,,,0.00,WUHU216HW,2013-01-26 10:59:00,
2013-01-26 04:00:00,46.1,34.6,29.72,NNW,338,0.0,0.0,64,0.00,,,0.00,WUHU216HW,2013-01-26 11:00:00,
2013-01-26 04:04:00,46.3,34.8,29.72,NNW,338,0.0,0.0,64,0.00,,,0.00,WUHU216HW,2013-01-26 11:04:00,
2013-01-26 04:05:00,46.3,34.8,29.72,NNW,338,0.0,0.0,64,0.00,,,0.00,WUHU216HW,2013-01-26 11:05:00,
2013-01-26 04:06:00,46.3,34.8,29.72,NNW,338,0.0,0.0,64,0.00,,,0.00,WUHU216HW,2013-01-26 11:06:00,
2013-01-26 04:09:00,46.3,34.8,29.72,NNW,338,0.4,0.4,64,0.00,,,0.00,WUHU216HW,2013-01-26 11:09:00,
2013-01-26 04:10:00,46.3,34.8,29.72,NW,315,0.4,0.4,64,0.00,,,0.00,WUHU216HW,2013-01-26 11:10:00,
2013-01-26 04:11:00,46.4,34.9,29.72,NNW,338,0.4,0.4,64,0.00,,,0.00,WUHU216HW,2013-01-26 11:11:00,
2013-01-26 04:14:00,46.4,34.9,29.72,NNW,338,0.4,0.9,64,0.00,,,0.00,WUHU216HW,2013-01-26 11:14:00,
2013-01-26 04:15:00,46.4,34.9,29.72,NW,315,0.9,0.9,64,0.00,,,0.00,WUHU216HW,2013-01-26 11:15:00,
2013-01-26 04:16:00,46.4,34.9,29.72,NNW,338,1.1,1.1,64,0.00,,,0.00,WUHU216HW,2013-01-26 11:16:00,
2013-01-26 04:20:00,46.4,34.9,29.72,NNW,338,1.1,1.8,64,0.00,,,0.00,WUHU216HW,2013-01-26 11:20:00,
2013-01-26 04:21:00,46.4,34.9,29.72,NNW,338,1.1,1.8,64,0.00,,,0.00,WUHU216HW,2013-01-26 11:21:00,
2013-01-26 04:25:00,46.4,34.9,29.72,NNW,338,1.1,1.8,64,0.00,,,0.00,WUHU216HW,2013-01-26 11:25:00,
2013-01-26 04:26:00,46.4,34.9,29.72,NNW,338,1.1,1.8,64,0.00,,,0.00,WUHU216HW,2013-01-26 11:26:00,
2013-01-26 04:30:00,46.4,34.9,29.72,NNW,338,0.0,1.1,64,0.00,,,0.00,WUHU216HW,2013-01-26 11:30:00,
2013-01-26 04:31:00,46.4,34.9,29.72,NNW,338,0.0,1.1,64,0.00,,,0.00,WUHU216HW,2013-01-26 11:31:00,
2013-01-26 04:35:00,46.4,34.9,29.72,NNW,338,0.0,1.1,64,0.00,,,0.00,WUHU216HW,2013-01-26 11:35:00,
2013-01-26 04:36:00,46.4,34.9,29.72,NNW,338,0.0,1.1,64,0.00,,,0.00,WUHU216HW,2013-01-26 11:36:00,
2013-01-26 04:41:00,46.6,35.1,29.72,NNW,338,0.0,0.0,64,0.00,,,0.00,WUHU216HW,2013-01-26 11:41:00,
2013-01-26 04:46:00,46.6,35.1,29.71,NNW,338,0.0,0.0,64,0.00,,,0.00,WUHU216HW,2013-01-26 11:46:00,
2013-01-26 04:47:00,46.6,35.1,29.71,NNW,338,0.0,0.0,64,0.00,,,0.00,WUHU216HW,2013-01-26 11:47:00,
2013-01-26 04:51:00,46.6,34.7,29.71,East,90,0.4,0.7,63,0.00,,,0.00,WUHU216HW,2013-01-26 11:51:00,
2013-01-26 04:52:00,46.6,34.7,29.71,ENE,68,0.4,0.7,63,0.00,,,0.00,WUHU216HW,2013-01-26 11:52:00,
2013-01-26 04:56:00,46.4,34.5,29.71,ENE,68,0.0,0.7,63,0.00,,,0.00,WUHU216HW,2013-01-26 11:56:00,
2013-01-26 04:57:00,46.4,34.5,29.71,ENE,68,0.7,0.7,63,0.00,,,0.00,WUHU216HW,2013-01-26 11:57:00,
2013-01-26 05:02:00,46.4,34.5,29.71,ENE,68,0.4,1.8,63,0.00,,,0.00,WUHU216HW,2013-01-26 12:02:00,
2013-01-26 05:07:00,46.1,34.1,29.72,East,90,0.4,1.8,63,0.00,,,0.00,WUHU216HW,2013-01-26 12:07:00,
2013-01-26 05:12:00,46.1,34.1,29.71,East,90,0.0,0.9,63,0.00,,,0.00,WUHU216HW,2013-01-26 12:12:00,
2013-01-26 05:17:00,46.1,34.1,29.71,East,90,0.0,0.4,63,0.00,,,0.00,WUHU216HW,2013-01-26 12:17:00,
2013-01-26 05:18:00,46.1,34.1,29.71,East,90,0.0,0.4,63,0.00,,,0.00,WUHU216HW,2013-01-26 12:18:00,
2013-01-26 05:22:00,45.9,34.0,29.71,ENE,68,0.4,1.3,63,0.00,,,0.00,WUHU216HW,2013-01-26 12:22:00,
2013-01-26 05:23:00,45.9,34.0,29.71,ENE,68,0.4,1.3,63,0.00,,,0.00,WUHU216HW,2013-01-26 12:23:00,
2013-01-26 05:27:00,46.1,34.1,29.71,North,0,0.4,1.3,63,0.00,,,0.00,WUHU216HW,2013-01-26 12:27:00,
2013-01-26 05:28:00,45.9,34.0,29.71,North,0,0.2,1.3,63,0.00,,,0.00,WUHU216HW,2013-01-26 12:28:00,
2013-01-26 05:32:00,46.1,34.1,29.71,North,0,0.2,0.7,63,0.00,,,0.00,WUHU216HW,2013-01-26 12:32:00,
2013-01-26 05:33:00,46.1,34.1,29.71,North,0,0.0,0.7,63,0.00,,,0.00,WUHU216HW,2013-01-26 12:33:00,
2013-01-26 05:37:00,46.1,34.1,29.71,North,0,0.0,0.7,63,0.00,,,0.00,WUHU216HW,2013-01-26 12:37:00,
2013-01-26 05:38:00,46.1,34.1,29.71,North,0,0.0,0.7,63,0.00,,,0.00,WUHU216HW,2013-01-26 12:38:00,
2013-01-26 05:42:00,46.1,34.1,29.71,NNW,338,0.0,0.4,63,0.00,,,0.00,WUHU216HW,2013-01-26 12:42:00,
2013-01-26 05:43:00,46.1,34.1,29.71,NNW,338,0.0,0.4,63,0.00,,,0.00,WUHU216HW,2013-01-26 12:43:00,
2013-01-26 05:47:00,46.1,34.1,29.71,NNW,338,0.7,0.7,63,0.00,,,0.00,WUHU216HW,2013-01-26 12:47:00,
2013-01-26 05:48:00,46.1,34.1,29.71,NNW,338,0.7,0.7,63,0.00,,,0.00,WUHU216HW,2013-01-26 12:48:00,
2013-01-26 05:49:00,46.3,34.3,29.71,NNW,338,0.4,0.7,63,0.00,,,0.00,WUHU216HW,2013-01-26 12:49:00,
2013-01-26 05:52:00,46.3,34.3,29.71,North,0,0.4,0.7,63,0.00,,,0.00,WUHU216HW,2013-01-26 12:52:00,
2013-01-26 05:53:00,46.3,34.3,29.71,North,0,0.4,0.7,63,0.00,,,0.00,WUHU216HW,2013-01-26 12:53:00,
2013-01-26 05:54:00,46.3,34.3,29.70,NNE,23,0.7,0.7,63,0.00,,,0.00,WUHU216HW,2013-01-26 12:54:00,
2013-01-26 05:57:00,46.3,34.3,29.70,NE,45,0.2,0.7,63,0.00,,,0.00,WUHU216HW,2013-01-26 12:57:00,
2013-01-26 05:58:00,46.3,34.3,29.70,NE,45,0.2,0.7,63,0.00,,,0.00,WUHU216HW,2013-01-26 12:58:00,
2013-01-26 05:59:00,46.3,34.3,29.70,NE,45,0.4,0.7,63,0.00,,,0.00,WUHU216HW,2013-01-26 12:59:00,
2013-01-26 06:03:00,46.3,34.3,29.70,NE,45,0.9,1.1,63,0.00,,,0.00,WUHU216HW,2013-01-26 13:03:00,
2013-01-26 06:04:00,46.3,34.3,29.70,NNE,23,0.7,1.1,63,0.00,,,0.00,WUHU216HW,2013-01-26 13:04:00,
2013-01-26 06:08:00,46.3,34.3,29.70,NNE,23,0.2,1.1,63,0.00,,,0.00,WUHU216HW,2013-01-26 13:08:00,
2013-01-26 06:09:00,46.3,34.3,29.70,NNE,23,0.4,1.1,63,0.00,,,0.00,WUHU216HW,2013-01-26 13:09:00,
2013-01-26 06:14:00,46.3,34.3,29.71,North,0,0.0,0.9,63,0.00,,,0.00,WUHU216HW,2013-01-26 13:14:00,
2013-01-26 06:19:00,46.3,34.3,29.70,NNE,23,2.0,2.0,63,0.00,,,0.00,WUHU216HW,2013-01-26 13:19:00,
2013-01-26 06:20:00,46.3,34.3,29.70,NNE,23,2.0,2.0,63,0.00,,,0.00,WUHU216HW,2013-01-26 13:20:00,
2013-01-26 06:24:00,46.1,34.1,29.70,ENE,68,1.1,2.0,63,0.00,,,0.00,WUHU216HW,2013-01-26 13:24:00,
2013-01-26 06:25:00,46.1,34.1,29.70,ENE,68,1.1,2.0,63,0.00,,,0.00,WUHU216HW,2013-01-26 13:25:00,
2013-01-26 06:29:00,45.9,34.4,29.70,NE,45,1.1,2.0,64,0.00,,,0.00,WUHU216HW,2013-01-26 13:29:00,
2013-01-26 06:30:00,45.9,34.4,29.70,NE,45,1.1,2.0,64,0.00,,,0.00,WUHU216HW,2013-01-26 13:30:00,
2013-01-26 06:34:00,45.7,34.2,29.70,NNE,23,1.1,3.6,64,0.00,,,0.00,WUHU216HW,2013-01-26 13:34:00,
2013-01-26 06:35:00,45.7,34.2,29.70,NNE,23,1.6,3.6,64,0.00,,,0.00,WUHU216HW,2013-01-26 13:35:00,
2013-01-26 06:39:00,45.7,33.9,29.70,North,0,1.8,3.6,63,0.00,,,0.00,WUHU216HW,2013-01-26 13:39:00,
2013-01-26 06:40:00,45.7,34.2,29.70,NNE,23,4.3,4.3,64,0.00,,,0.00,WUHU216HW,2013-01-26 13:40:00,
2013-01-26 06:44:00,45.5,34.0,29.70,North,0,4.7,4.7,64,0.00,,,0.00,WUHU216HW,2013-01-26 13:44:00,
2013-01-26 06:45:00,45.5,34.0,29.70,North,0,4.7,4.7,64,0.00,,,0.00,WUHU216HW,2013-01-26 13:45:00,
2013-01-26 06:49:00,45.4,33.8,29.70,North,0,0.7,4.7,64,0.00,,,0.00,WUHU216HW,2013-01-26 13:49:00,
2013-01-26 06:50:00,45.4,33.8,29.70,North,0,0.7,4.7,64,0.00,,,0.00,WUHU216HW,2013-01-26 13:50:00,
2013-01-26 06:55:00,45.2,34.1,29.70,North,0,1.8,3.6,65,0.00,,,0.00,WUHU216HW,2013-01-26 13:55:00,
2013-01-26 06:56:00,45.2,34.1,29.70,NNW,338,1.1,1.8,65,0.00,,,0.00,WUHU216HW,2013-01-26 13:56:00,
2013-01-26 07:00:00,45.0,33.9,29.69,North,0,0.4,1.8,65,0.00,,,0.00,WUHU216HW,2013-01-26 14:00:00,
2013-01-26 07:01:00,45.0,33.9,29.69,North,0,0.4,1.8,65,0.00,,,0.00,WUHU216HW,2013-01-26 14:01:00,
2013-01-26 07:05:00,45.0,33.9,29.69,North,0,0.0,1.1,65,0.00,,,0.00,WUHU216HW,2013-01-26 14:05:00,
2013-01-26 07:06:00,45.0,33.9,29.69,NNW,338,0.7,0.9,65,0.00,,,0.00,WUHU216HW,2013-01-26 14:06:00,
2013-01-26 07:10:00,45.0,33.9,29.69,NNW,338,1.8,2.5,65,0.00,,,0.00,WUHU216HW,2013-01-26 14:10:00,
2013-01-26 07:11:00,45.0,33.9,29.69,NW,315,1.6,2.5,65,0.00,,,0.00,WUHU216HW,2013-01-26 14:11:00,
2013-01-26 07:15:00,45.0,33.9,29.69,WNW,293,1.1,2.5,65,0.00,,,0.00,WUHU216HW,2013-01-26 14:15:00,
2013-01-26 07:16:00,45.0,33.9,29.69,NNW,338,1.1,2.5,65,0.00,,,0.00,WUHU216HW,2013-01-26 14:16:00,
2013-01-26 07:20:00,45.0,34.3,29.69,North,0,0.4,1.8,66,0.00,,,0.00,WUHU216HW,2013-01-26 14:20:00,
2013-01-26 07:21:00,45.0,34.3,29.69,NNW,338,1.1,1.8,66,0.00,,,0.00,WUHU216HW,2013-01-26 14:21:00,
2013-01-26 07:22:00,45.0,34.3,29.69,NNW,338,1.1,1.8,66,0.00,,,0.00,WUHU216HW,2013-01-26 14:22:00,
2013-01-26 07:25:00,45.0,34.3,29.69,North,0,0.9,1.6,66,0.00,,,0.00,WUHU216HW,2013-01-26 14:25:00,
2013-01-26 07:26:00,45.0,34.3,29.69,North,0,0.9,1.6,66,0.00,,,0.00,WUHU216HW,2013-01-26 14:26:00,
2013-01-26 07:27:00,45.0,34.3,29.69,North,0,1.1,1.6,66,0.00,,,0.00,WUHU216HW,2013-01-26 14:27:00,
2013-01-26 07:30:00,45.2,34.5,29.69,North,0,0.4,1.6,66,0.00,,,0.00,WUHU216HW,2013-01-26 14:30:00,
2013-01-26 07:31:00,45.2,34.5,29.69,North,0,0.4,1.6,66,0.00,,,0.00,WUHU216HW,2013-01-26 14:31:00,
2013-01-26 07:32:00,45.4,34.7,29.69,North,0,0.9,1.6,66,0.00,,,0.00,WUHU216HW,2013-01-26 14:32:00,
2013-01-26 07:35:00,45.4,34.7,29.68,North,0,0.4,1.1,66,0.00,,,0.00,WUHU216HW,2013-01-26 14:35:00,
2013-01-26 07:36:00,45.5,34.8,29.69,North,0,0.0,0.9,66,0.00,,,0.00,WUHU216HW,2013-01-26 14:36:00,
2013-01-26 07:37:00,45.5,34.8,29.69,NNW,338,0.4,0.9,66,0.00,,,0.00,WUHU216HW,2013-01-26 14:37:00,
2013-01-26 07:40:00,45.7,35.0,29.69,NNE,23,0.9,0.9,66,0.00,,,0.00,WUHU216HW,2013-01-26 14:40:00,
2013-01-26 07:42:00,45.7,35.0,29.69,NNE,23,3.8,3.8,66,0.00,,,0.00,WUHU216HW,2013-01-26 14:42:00,
2013-01-26 07:46:00,45.9,34.7,29.69,NNE,23,2.0,3.8,65,0.00,,,0.00,WUHU216HW,2013-01-26 14:46:00,
2013-01-26 07:47:00,45.9,34.7,29.69,North,0,2.2,3.8,65,0.00,,,0.00,WUHU216HW,2013-01-26 14:47:00,
2013-01-26 07:51:00,46.1,35.4,29.68,North,0,4.9,4.9,66,0.00,,,0.00,WUHU216HW,2013-01-26 14:51:00,
2013-01-26 07:52:00,46.1,35.4,29.69,North,0,5.8,5.8,66,0.00,,,0.00,WUHU216HW,2013-01-26 14:52:00,
2013-01-26 07:56:00,46.1,35.4,29.68,NNE,23,1.1,5.8,66,0.00,,,0.00,WUHU216HW,2013-01-26 14:56:00,
2013-01-26 07:57:00,46.1,35.4,29.69,NNE,23,3.4,5.8,66,0.00,,,0.00,WUHU216HW,2013-01-26 14:57:00,
2013-01-26 07:58:00,46.3,35.5,29.68,North,0,1.6,5.8,66,0.00,,,0.00,WUHU216HW,2013-01-26 14:58:00,
2013-01-26 08:01:00,46.3,35.1,29.68,North,0,2.2,5.8,65,0.00,,,0.00,WUHU216HW,2013-01-26 15:01:00,
2013-01-26 08:02:00,46.3,35.5,29.68,NNE,23,6.3,6.3,66,0.00,,,0.00,WUHU216HW,2013-01-26 15:02:00,
2013-01-26 08:04:00,46.4,35.3,29.68,NNE,23,4.7,6.3,65,0.00,,,0.00,WUHU216HW,2013-01-26 15:04:00,
2013-01-26 08:06:00,46.4,35.3,29.69,NNE,23,1.8,6.3,65,0.00,,,0.00,WUHU216HW,2013-01-26 15:06:00,
2013-01-26 08:07:00,46.4,35.3,29.69,North,0,3.8,6.3,65,0.00,,,0.00,WUHU216HW,2013-01-26 15:07:00,
2013-01-26 08:08:00,46.4,35.3,29.69,North,0,3.8,6.3,65,0.00,,,0.00,WUHU216HW,2013-01-26 15:08:00,
2013-01-26 08:09:00,46.6,35.5,29.69,North,0,2.0,6.3,65,0.00,,,0.00,WUHU216HW,2013-01-26 15:09:00,
2013-01-26 08:11:00,46.6,35.5,29.69,NNE,23,3.4,6.3,65,0.00,,,0.00,WUHU216HW,2013-01-26 15:11:00,
2013-01-26 08:12:00,46.8,35.7,29.69,NNE,23,2.9,4.7,65,0.00,,,0.00,WUHU216HW,2013-01-26 15:12:00,
2013-01-26 08:13:00,46.8,35.7,29.69,NNE,23,2.9,4.7,65,0.00,,,0.00,WUHU216HW,2013-01-26 15:13:00,
2013-01-26 08:14:00,46.8,35.7,29.69,NNE,23,2.7,4.0,65,0.00,,,0.00,WUHU216HW,2013-01-26 15:14:00,
2013-01-26 08:16:00,47.0,35.8,29.69,NNE,23,1.8,4.0,65,0.00,,,0.00,WUHU216HW,2013-01-26 15:16:00,
2013-01-26 08:17:00,46.8,35.7,29.69,North,0,2.2,4.0,65,0.00,,,0.00,WUHU216HW,2013-01-26 15:17:00,
2013-01-26 08:18:00,47.0,35.4,29.68,NNE,23,4.7,4.7,64,0.00,,,0.00,WUHU216HW,2013-01-26 15:18:00,
2013-01-26 08:19:00,47.0,35.4,29.68,NNE,23,6.9,6.9,64,0.00,,,0.00,WUHU216HW,2013-01-26 15:19:00,
2013-01-26 08:21:00,47.0,35.8,29.68,NNE,23,6.3,6.9,65,0.00,,,0.00,WUHU216HW,2013-01-26 15:21:00,
2013-01-26 08:22:00,47.2,35.6,29.68,NNE,23,5.6,6.9,64,0.00,,,0.00,WUHU216HW,2013-01-26 15:22:00,
2013-01-26 08:23:00,47.2,35.6,29.68,NE,45,3.8,6.9,64,0.00,,,0.00,WUHU216HW,2013-01-26 15:23:00,
2013-01-26 08:24:00,47.2,35.6,29.68,NE,45,3.4,6.9,64,0.00,,,0.00,WUHU216HW,2013-01-26 15:24:00,
2013-01-26 08:26:00,47.2,35.6,29.68,North,0,4.7,6.9,64,0.00,,,0.00,WUHU216HW,2013-01-26 15:26:00,
2013-01-26 08:27:00,47.2,35.6,29.68,North,0,2.9,6.9,64,0.00,,,0.00,WUHU216HW,2013-01-26 15:27:00,
2013-01-26 08:29:00,47.2,35.6,29.69,ENE,68,3.4,6.3,64,0.00,,,0.00,WUHU216HW,2013-01-26 15:29:00,
2013-01-26 08:31:00,47.2,35.6,29.69,NNE,23,3.4,5.6,64,0.00,,,0.00,WUHU216HW,2013-01-26 15:31:00,
2013-01-26 08:32:00,47.3,35.7,29.68,ENE,68,2.5,4.7,64,0.00,,,0.00,WUHU216HW,2013-01-26 15:32:00,
2013-01-26 08:34:00,47.3,35.7,29.68,North,0,2.5,4.7,64,0.00,,,0.00,WUHU216HW,2013-01-26 15:34:00,
2013-01-26 08:35:00,47.3,35.7,29.68,NNE,23,4.0,4.7,64,0.00,,,0.00,WUHU216HW,2013-01-26 15:35:00,
2013-01-26 08:36:00,47.3,35.7,29.68,NNE,23,2.9,4.7,64,0.00,,,0.00,WUHU216HW,2013-01-26 15:36:00,
2013-01-26 08:38:00,47.5,35.6,29.68,North,0,4.7,4.7,63,0.00,,,0.00,WUHU216HW,2013-01-26 15:38:00,
2013-01-26 08:39:00,47.5,35.6,29.68,NNE,23,4.7,4.7,63,0.00,,,0.00,WUHU216HW,2013-01-26 15:39:00,
2013-01-26 08:40:00,47.5,35.6,29.68,ENE,68,3.1,4.7,63,0.00,,,0.00,WUHU216HW,2013-01-26 15:40:00,
2013-01-26 08:41:00,47.5,35.6,29.68,NE,45,2.7,4.7,63,0.00,,,0.00,WUHU216HW,2013-01-26 15:41:00,
2013-01-26 08:43:00,47.7,35.7,29.68,NE,45,4.0,4.7,63,0.00,,,0.00,WUHU216HW,2013-01-26 15:43:00,
2013-01-26 08:44:00,47.7,35.7,29.68,NE,45,3.4,4.7,63,0.00,,,0.00,WUHU216HW,2013-01-26 15:44:00,
2013-01-26 08:45:00,47.7,35.7,29.68,ENE,68,3.4,4.7,63,0.00,,,0.00,WUHU216HW,2013-01-26 15:45:00,
2013-01-26 08:46:00,47.7,35.7,29.69,NE,45,6.3,6.3,63,0.00,,,0.00,WUHU216HW,2013-01-26 15:46:00,
2013-01-26 08:48:00,47.7,35.7,29.68,ENE,68,4.9,6.3,63,0.00,,,0.00,WUHU216HW,2013-01-26 15:48:00,
2013-01-26 08:49:00,47.7,35.7,29.68,NNE,23,4.3,6.3,63,0.00,,,0.00,WUHU216HW,2013-01-26 15:49:00,
2013-01-26 08:50:00,47.7,35.7,29.68,NNE,23,4.7,6.3,63,0.00,,,0.00,WUHU216HW,2013-01-26 15:50:00,
2013-01-26 08:51:00,47.9,35.9,29.68,NE,45,4.5,6.3,63,0.00,,,0.00,WUHU216HW,2013-01-26 15:51:00,
2013-01-26 08:53:00,47.9,35.9,29.68,ENE,68,3.1,6.3,63,0.00,,,0.00,WUHU216HW,2013-01-26 15:53:00,
2013-01-26 08:54:00,47.9,35.9,29.68,NNE,23,5.4,6.3,63,0.00,,,0.00,WUHU216HW,2013-01-26 15:54:00,
2013-01-26 08:55:00,47.9,35.9,29.68,NNE,23,5.4,6.3,63,0.00,,,0.00,WUHU216HW,2013-01-26 15:55:00,
2013-01-26 08:56:00,47.9,35.9,29.68,ENE,68,5.4,7.4,63,0.00,,,0.00,WUHU216HW,2013-01-26 15:56:00,
2013-01-26 08:58:00,47.9,35.5,29.68,North,0,4.0,7.4,62,0.00,,,0.00,WUHU216HW,2013-01-26 15:58:00,
2013-01-26 08:59:00,48.1,35.6,29.68,ENE,68,4.5,7.4,62,0.00,,,0.00,WUHU216HW,2013-01-26 15:59:00,
2013-01-26 09:00:00,47.9,35.5,29.68,ENE,68,4.9,7.4,62,0.00,,,0.00,WUHU216HW,2013-01-26 16:00:00,
2013-01-26 09:02:00,48.1,35.6,29.68,ENE,68,6.3,7.4,62,0.00,,,0.00,WUHU216HW,2013-01-26 16:02:00,
2013-01-26 09:03:00,48.1,35.6,29.68,NNE,23,3.1,7.4,62,0.00,,,0.00,WUHU216HW,2013-01-26 16:03:00,
2013-01-26 09:05:00,48.1,35.6,29.69,ENE,68,6.3,7.4,62,0.00,,,0.00,WUHU216HW,2013-01-26 16:05:00,
2013-01-26 09:07:00,48.1,35.6,29.69,NNE,23,2.9,6.3,62,0.00,,,0.00,WUHU216HW,2013-01-26 16:07:00,
2013-01-26 09:08:00,48.2,35.8,29.69,NNE,23,3.4,6.3,62,0.00,,,0.00,WUHU216HW,2013-01-26 16:08:00,
2013-01-26 09:10:00,48.2,35.8,29.69,NE,45,5.8,6.3,62,0.00,,,0.00,WUHU216HW,2013-01-26 16:10:00,
2013-01-26 09:11:00,48.2,35.8,29.68,NE,45,4.9,6.3,62,0.00,,,0.00,WUHU216HW,2013-01-26 16:11:00,
2013-01-26 09:12:00,48.2,35.8,29.68,North,0,4.3,6.3,62,0.00,,,0.00,WUHU216HW,2013-01-26 16:12:00,
2013-01-26 09:14:00,48.2,35.8,29.68,NNE,23,4.3,6.3,62,0.00,,,0.00,WUHU216HW,2013-01-26 16:14:00,
2013-01-26 09:15:00,48.2,35.8,29.68,NNE,23,4.0,6.3,62,0.00,,,0.00,WUHU216HW,2013-01-26 16:15:00,
2013-01-26 09:16:00,48.4,36.0,29.68,NE,45,3.4,6.3,62,0.00,,,0.00,WUHU216HW,2013-01-26 16:16:00,
2013-01-26 09:17:00,48.4,36.0,29.68,NE,45,4.5,6.3,62,0.00,,,0.00,WUHU216HW,2013-01-26 16:17:00,
2013-01-26 09:19:00,48.4,36.0,29.68,NNE,23,4.5,6.3,62,0.00,,,0.00,WUHU216HW,2013-01-26 16:19:00,
2013-01-26 09:20:00,48.6,36.2,29.69,North,0,4.0,6.3,62,0.00,,,0.00,WUHU216HW,2013-01-26 16:20:00,
2013-01-26 09:21:00,48.6,35.8,29.69,NNE,23,4.0,4.5,61,0.00,,,0.00,WUHU216HW,2013-01-26 16:21:00,
2013-01-26 09:23:00,48.6,35.8,29.69,North,0,4.0,4.5,61,0.00,,,0.00,WUHU216HW,2013-01-26 16:23:00,
2013-01-26 09:24:00,48.6,35.8,29.69,NNE,23,5.4,5.4,61,0.00,,,0.00,WUHU216HW,2013-01-26 16:24:00,
2013-01-26 09:25:00,48.6,35.8,29.69,NNE,23,5.4,5.4,61,0.00,,,0.00,WUHU216HW,2013-01-26 16:25:00,
2013-01-26 09:26:00,48.8,36.0,29.69,ENE,68,4.3,5.4,61,0.00,,,0.00,WUHU216HW,2013-01-26 16:26:00,
2013-01-26 09:28:00,48.8,36.0,29.69,NE,45,2.9,5.4,61,0.00,,,0.00,WUHU216HW,2013-01-26 16:28:00,
2013-01-26 09:29:00,48.8,36.0,29.69,NNE,23,5.1,5.4,61,0.00,,,0.00,WUHU216HW,2013-01-26 16:29:00,
2013-01-26 09:30:00,48.8,36.0,29.69,NNE,23,5.1,5.4,61,0.00,,,0.00,WUHU216HW,2013-01-26 16:30:00,
2013-01-26 09:31:00,49.0,36.6,29.69,NE,45,6.3,7.4,62,0.00,,,0.00,WUHU216HW,2013-01-26 16:31:00,
2013-01-26 09:33:00,49.0,36.6,29.69,NE,45,3.4,7.4,62,0.00,,,0.00,WUHU216HW,2013-01-26 16:33:00,
2013-01-26 09:35:00,49.0,36.1,29.69,NE,45,3.1,7.4,61,0.00,,,0.00,WUHU216HW,2013-01-26 16:35:00,
2013-01-26 09:36:00,49.0,36.1,29.69,NE,45,4.3,7.4,61,0.00,,,0.00,WUHU216HW,2013-01-26 16:36:00,
2013-01-26 09:38:00,49.0,36.1,29.69,NE,45,4.5,7.4,61,0.00,,,0.00,WUHU216HW,2013-01-26 16:38:00,
2013-01-26 09:40:00,49.1,36.3,29.69,NE,45,2.9,7.4,61,0.00,,,0.00,WUHU216HW,2013-01-26 16:40:00,
2013-01-26 09:41:00,49.0,36.1,29.69,East,90,3.8,5.6,61,0.00,,,0.00,WUHU216HW,2013-01-26 16:41:00,
2013-01-26 09:43:00,49.0,36.1,29.69,North,0,4.7,5.4,61,0.00,,,0.00,WUHU216HW,2013-01-26 16:43:00,
2013-01-26 09:45:00,49.0,36.1,29.69,NE,45,5.8,5.8,61,0.00,,,0.00,WUHU216HW,2013-01-26 16:45:00,
2013-01-26 09:47:00,49.0,36.1,29.69,NE,45,3.4,5.8,61,0.00,,,0.00,WUHU216HW,2013-01-26 16:47:00,
2013-01-26 09:48:00,49.0,36.1,29.69,NNE,23,1.6,5.8,61,0.00,,,0.00,WUHU216HW,2013-01-26 16:48:00,
2013-01-26 09:50:00,49.0,36.1,29.69,North,0,2.5,5.8,61,0.00,,,0.00,WUHU216HW,2013-01-26 16:50:00,
2013-01-26 09:52:00,49.0,36.1,29.69,NE,45,2.0,5.8,61,0.00,,,0.00,WUHU216HW,2013-01-26 16:52:00,
2013-01-26 09:53:00,49.0,36.1,29.69,NE,45,2.5,5.8,61,0.00,,,0.00,WUHU216HW,2013-01-26 16:53:00,
2013-01-26 09:55:00,49.0,36.1,29.69,NE,45,2.5,4.0,61,0.00,,,0.00,WUHU216HW,2013-01-26 16:55:00,
2013-01-26 09:57:00,49.1,36.3,29.69,NE,45,3.4,3.4,61,0.00,,,0.00,WUHU216HW,2013-01-26 16:57:00,
2013-01-26 09:58:00,49.1,36.3,29.69,NNE,23,3.6,3.6,61,0.00,,,0.00,WUHU216HW,2013-01-26 16:58:00,
2013-01-26 10:00:00,49.3,36.5,29.69,North,0,3.6,3.6,61,0.00,,,0.00,WUHU216HW,2013-01-26 17:00:00,
2013-01-26 10:02:00,49.1,36.3,29.69,NNE,23,4.7,4.7,61,0.00,,,0.00,WUHU216HW,2013-01-26 17:02:00,
2013-01-26 10:04:00,49.1,36.3,29.69,NNE,23,2.5,4.7,61,0.00,,,0.00,WUHU216HW,2013-01-26 17:04:00,
2013-01-26 10:05:00,49.3,36.5,29.69,NNE,23,3.4,4.7,61,0.00,,,0.00,WUHU216HW,2013-01-26 17:05:00,
2013-01-26 10:06:00,49.3,36.5,29.69,NNE,23,3.4,4.7,61,0.00,,,0.00,WUHU216HW,2013-01-26 17:06:00,
2013-01-26 10:07:00,49.3,36.5,29.69,NNE,23,1.8,4.7,61,0.00,,,0.00,WUHU216HW,2013-01-26 17:07:00,
2013-01-26 10:09:00,49.3,36.5,29.68,NE,45,2.7,4.7,61,0.00,,,0.00,WUHU216HW,2013-01-26 17:09:00,
2013-01-26 10:10:00,49.3,36.5,29.68,NE,45,2.7,4.7,61,0.00,,,0.00,WUHU216HW,2013-01-26 17:10:00,
2013-01-26 10:11:00,49.3,36.1,29.68,NNE,23,3.8,4.7,60,0.00,,,0.00,WUHU216HW,2013-01-26 17:11:00,
2013-01-26 10:13:00,49.3,36.5,29.68,NNE,23,3.4,3.8,61,0.00,,,0.00,WUHU216HW,2013-01-26 17:13:00,
2013-01-26 10:14:00,49.3,36.1,29.68,ENE,68,2.5,3.8,60,0.00,,,0.00,WUHU216HW,2013-01-26 17:14:00,
2013-01-26 10:15:00,49.3,36.1,29.68,NE,45,1.8,3.8,60,0.00,,,0.00,WUHU216HW,2013-01-26 17:15:00,
2013-01-26 10:16:00,49.3,36.1,29.68,NE,45,2.5,3.8,60,0.00,,,0.00,WUHU216HW,2013-01-26 17:16:00,
2013-01-26 10:18:00,49.5,36.3,29.68,NE,45,3.1,3.8,60,0.00,,,0.00,WUHU216HW,2013-01-26 17:18:00,
2013-01-26 10:19:00,49.5,36.3,29.68,North,0,2.0,3.8,60,0.00,,,0.00,WUHU216HW,2013-01-26 17:19:00,
2013-01-26 10:20:00,49.5,36.3,29.68,North,0,2.9,3.8,60,0.00,,,0.00,WUHU216HW,2013-01-26 17:20:00,
2013-01-26 10:21:00,49.7,36.4,29.68,NNE,23,1.8,3.4,60,0.00,,,0.00,WUHU216HW,2013-01-26 17:21:00,
2013-01-26 10:23:00,49.7,36.4,29.68,NE,45,1.3,3.1,60,0.00,,,0.00,WUHU216HW,2013-01-26 17:23:00,
2013-01-26 10:24:00,49.7,36.4,29.68,NE,45,1.1,3.1,60,0.00,,,0.00,WUHU216HW,2013-01-26 17:24:00,
2013-01-26 10:25:00,49.7,36.4,29.68,NE,45,1.8,3.1,60,0.00,,,0.00,WUHU216HW,2013-01-26 17:25:00,
2013-01-26 10:26:00,49.7,36.4,29.68,NNE,23,1.8,3.1,60,0.00,,,0.00,WUHU216HW,2013-01-26 17:26:00,
2013-01-26 10:28:00,49.9,36.5,29.68,North,0,1.6,2.9,60,0.00,,,0.00,WUHU216HW,2013-01-26 17:28:00,
2013-01-26 10:29:00,50.0,36.7,29.68,NNE,23,1.8,2.9,60,0.00,,,0.00,WUHU216HW,2013-01-26 17:29:00,
2013-01-26 10:30:00,50.0,36.7,29.68,NNE,23,1.8,2.0,60,0.00,,,0.00,WUHU216HW,2013-01-26 17:30:00,
2013-01-26 10:32:00,50.0,36.7,29.68,ENE,68,1.8,2.0,60,0.00,,,0.00,WUHU216HW,2013-01-26 17:32:00,
2013-01-26 10:34:00,50.2,36.9,29.68,NE,45,2.5,2.5,60,0.00,,,0.00,WUHU216HW,2013-01-26 17:34:00,
2013-01-26 10:35:00,50.2,36.5,29.68,NE,45,2.5,2.5,59,0.00,,,0.00,WUHU216HW,2013-01-26 17:35:00,
2013-01-26 10:37:00,50.2,36.5,29.68,ENE,68,1.3,2.5,59,0.00,,,0.00,WUHU216HW,2013-01-26 17:37:00,
2013-01-26 10:39:00,50.2,36.5,29.68,East,90,1.1,2.5,59,0.00,,,0.00,WUHU216HW,2013-01-26 17:39:00,
2013-01-26 10:40:00,50.4,36.6,29.68,East,90,0.2,2.5,59,0.00,,,0.00,WUHU216HW,2013-01-26 17:40:00,
2013-01-26 10:41:00,50.4,36.6,29.68,NE,45,1.1,2.5,59,0.00,,,0.00,WUHU216HW,2013-01-26 17:41:00,
2013-01-26 10:42:00,50.4,36.6,29.68,NE,45,1.8,2.5,59,0.00,,,0.00,WUHU216HW,2013-01-26 17:42:00,
2013-01-26 10:44:00,50.2,36.5,29.69,NE,45,0.4,2.5,59,0.00,,,0.00,WUHU216HW,2013-01-26 17:44:00,
2013-01-26 10:45:00,50.4,36.6,29.69,NE,45,0.4,2.0,59,0.00,,,0.00,WUHU216HW,2013-01-26 17:45:00,
2013-01-26 10:46:00,50.4,36.6,29.69,NE,45,0.0,2.0,59,0.00,,,0.00,WUHU216HW,2013-01-26 17:46:00,
2013-01-26 10:47:00,50.4,36.6,29.69,ENE,68,0.9,2.0,59,0.00,,,0.00,WUHU216HW,2013-01-26 17:47:00,
2013-01-26 10:49:00,50.4,36.6,29.69,ESE,113,1.1,1.8,59,0.00,,,0.00,WUHU216HW,2013-01-26 17:49:00,
2013-01-26 10:50:00,50.4,36.6,29.69,SE,135,1.8,1.8,59,0.00,,,0.00,WUHU216HW,2013-01-26 17:50:00,
2013-01-26 10:51:00,50.4,36.6,29.69,SE,135,1.8,1.8,59,0.00,,,0.00,WUHU216HW,2013-01-26 17:51:00,
2013-01-26 10:52:00,50.4,36.6,29.68,SE,135,0.4,1.8,59,0.00,,,0.00,WUHU216HW,2013-01-26 17:52:00,
2013-01-26 10:54:00,50.4,36.6,29.68,SE,135,1.1,1.8,59,0.00,,,0.00,WUHU216HW,2013-01-26 17:54:00,
2013-01-26 10:55:00,50.4,36.6,29.68,East,90,0.4,1.8,59,0.00,,,0.00,WUHU216HW,2013-01-26 17:55:00,
2013-01-26 10:56:00,50.4,36.6,29.68,ESE,113,1.1,1.8,59,0.00,,,0.00,WUHU216HW,2013-01-26 17:56:00,
2013-01-26 10:57:00,50.4,36.6,29.68,ESE,113,1.1,1.8,59,0.00,,,0.00,WUHU216HW,2013-01-26 17:57:00,
2013-01-26 10:59:00,50.6,36.7,29.68,SE,135,0.4,1.8,59,0.00,,,0.00,WUHU216HW,2013-01-26 17:59:00,
2013-01-26 11:00:00,50.6,36.7,29.68,SE,135,0.0,1.1,59,0.00,,,0.00,WUHU216HW,2013-01-26 18:00:00,
2013-01-26 11:01:00,50.6,36.7,29.68,ESE,113,0.7,1.1,59,0.00,,,0.00,WUHU216HW,2013-01-26 18:01:00,
2013-01-26 11:02:00,50.8,36.9,29.68,ESE,113,0.0,1.1,59,0.00,,,0.00,WUHU216HW,2013-01-26 18:02:00,
2013-01-26 11:04:00,50.8,36.9,29.68,ESE,113,0.0,1.1,59,0.00,,,0.00,WUHU216HW,2013-01-26 18:04:00,
2013-01-26 11:06:00,50.8,36.9,29.68,ESE,113,0.0,1.1,59,0.00,,,0.00,WUHU216HW,2013-01-26 18:06:00,
2013-01-26 11:07:00,50.8,36.9,29.68,ESE,113,0.0,0.9,59,0.00,,,0.00,WUHU216HW,2013-01-26 18:07:00,
2013-01-26 11:09:00,50.8,36.9,29.68,ESE,113,0.0,0.7,59,0.00,,,0.00,WUHU216HW,2013-01-26 18:09:00,
2013-01-26 11:11:00,50.8,36.9,29.68,ESE,113,0.0,0.7,59,0.00,,,0.00,WUHU216HW,2013-01-26 18:11:00,
2013-01-26 11:12:00,50.9,37.1,29.68,ESE,113,0.4,0.4,59,0.00,,,0.00,WUHU216HW,2013-01-26 18:12:00,
2013-01-26 11:15:00,50.9,37.5,29.68,SSE,158,0.4,0.4,60,0.00,,,0.00,WUHU216HW,2013-01-26 18:15:00,
2013-01-26 11:16:00,50.8,37.4,29.68,SSE,158,0.4,0.4,60,0.00,,,0.00,WUHU216HW,2013-01-26 18:16:00,
2013-01-26 11:17:00,50.8,37.4,29.68,SSE,158,0.2,0.4,60,0.00,,,0.00,WUHU216HW,2013-01-26 18:17:00,
2013-01-26 11:18:00,50.8,37.4,29.68,SSE,158,0.2,0.4,60,0.00,,,0.00,WUHU216HW,2013-01-26 18:18:00,
2013-01-26 11:20:00,50.8,37.4,29.68,SSE,158,0.0,0.4,60,0.00,,,0.00,WUHU216HW,2013-01-26 18:20:00,
2013-01-26 11:21:00,50.8,37.4,29.68,SE,135,0.0,0.4,60,0.01,,,0.00,WUHU216HW,2013-01-26 18:21:00,
2013-01-26 11:22:00,50.8,37.4,29.68,SE,135,0.0,0.4,60,0.01,,,0.01,WUHU216HW,2013-01-26 18:22:00,
2013-01-26 11:23:00,50.8,37.4,29.68,SE,135,0.0,0.4,60,0.01,,,0.01,WUHU216HW,2013-01-26 18:23:00,
2013-01-26 11:25:00,50.8,37.8,29.68,SE,135,0.0,0.4,61,0.01,,,0.01,WUHU216HW,2013-01-26 18:25:00,
2013-01-26 11:26:00,50.8,37.8,29.68,SE,135,0.0,0.2,61,0.01,,,0.01,WUHU216HW,2013-01-26 18:26:00,
2013-01-26 11:27:00,50.8,37.8,29.68,SE,135,0.0,0.0,61,0.01,,,0.01,WUHU216HW,2013-01-26 18:27:00,
2013-01-26 11:28:00,50.8,37.8,29.68,SE,135,0.4,0.4,61,0.02,,,0.01,WUHU216HW,2013-01-26 18:28:00,
2013-01-26 11:30:00,50.8,37.8,29.68,ESE,113,0.4,0.7,61,0.02,,,0.02,WUHU216HW,2013-01-26 18:30:00,
2013-01-26 11:31:00,50.8,38.2,29.68,ESE,113,0.0,0.7,62,0.02,,,0.02,WUHU216HW,2013-01-26 18:31:00,
2013-01-26 11:32:00,50.8,38.2,29.68,ESE,113,0.0,0.7,62,0.02,,,0.02,WUHU216HW,2013-01-26 18:32:00,
2013-01-26 11:33:00,50.8,38.2,29.68,ESE,113,0.0,0.7,62,0.02,,,0.02,WUHU216HW,2013-01-26 18:33:00,
2013-01-26 11:35:00,50.6,38.0,29.68,ESE,113,0.0,0.7,62,0.02,,,0.02,WUHU216HW,2013-01-26 18:35:00,
2013-01-26 11:36:00,50.6,38.0,29.68,ESE,113,0.0,0.7,62,0.02,,,0.02,WUHU216HW,2013-01-26 18:36:00,
2013-01-26 11:37:00,50.6,38.0,29.67,ESE,113,0.0,0.7,62,0.02,,,0.02,WUHU216HW,2013-01-26 18:37:00,
2013-01-26 11:38:00,50.8,38.2,29.67,ESE,113,0.0,0.7,62,0.02,,,0.02,WUHU216HW,2013-01-26 18:38:00,
2013-01-26 11:40:00,50.6,38.0,29.67,ESE,113,0.0,0.0,62,0.02,,,0.02,WUHU216HW,2013-01-26 18:40:00,
2013-01-26 11:41:00,50.6,38.0,29.67,ESE,113,0.0,0.0,62,0.02,,,0.02,WUHU216HW,2013-01-26 18:41:00,
2013-01-26 11:43:00,50.8,38.2,29.67,ESE,113,0.0,0.0,62,0.02,,,0.02,WUHU216HW,2013-01-26 18:43:00,
2013-01-26 11:45:00,50.6,38.4,29.67,ESE,113,0.0,0.0,63,0.02,,,0.02,WUHU216HW,2013-01-26 18:45:00,
2013-01-26 11:46:00,50.6,38.4,29.67,ESE,113,0.0,0.0,63,0.02,,,0.02,WUHU216HW,2013-01-26 18:46:00,
2013-01-26 11:48:00,50.6,38.4,29.67,ESE,113,0.0,0.0,63,0.02,,,0.02,WUHU216HW,2013-01-26 18:48:00,
2013-01-26 11:49:00,50.8,38.6,29.67,ESE,113,0.0,0.0,63,0.02,,,0.02,WUHU216HW,2013-01-26 18:49:00,
2013-01-26 11:50:00,50.8,38.6,29.67,ESE,113,0.0,0.0,63,0.02,,,0.02,WUHU216HW,2013-01-26 18:50:00,
2013-01-26 11:52:00,50.8,38.6,29.67,ESE,113,0.0,0.0,63,0.03,,,0.02,WUHU216HW,2013-01-26 18:52:00,
2013-01-26 11:53:00,50.8,38.6,29.67,ESE,113,0.0,0.0,63,0.03,,,0.03,WUHU216HW,2013-01-26 18:53:00,
2013-01-26 11:54:00,50.8,38.6,29.67,North,0,0.0,0.0,63,0.03,,,0.03,WUHU216HW,2013-01-26 18:54:00,
2013-01-26 11:55:00,50.6,38.8,29.67,North,0,0.0,0.4,64,0.03,,,0.03,WUHU216HW,2013-01-26 18:55:00,
2013-01-26 11:57:00,50.8,39.0,29.67,North,0,0.0,0.4,64,0.03,,,0.03,WUHU216HW,2013-01-26 18:57:00,
2013-01-26 11:58:00,50.6,38.8,29.67,North,0,0.9,0.9,64,0.03,,,0.03,WUHU216HW,2013-01-26 18:58:00,
2013-01-26 11:59:00,50.8,39.0,29.67,North,0,0.0,0.9,64,0.03,,,0.03,WUHU216HW,2013-01-26 18:59:00,
2013-01-26 12:01:00,50.6,38.8,29.67,North,0,0.0,0.9,64,0.04,,,0.04,WUHU216HW,2013-01-26 19:01:00,
2013-01-26 12:02:00,50.6,38.8,29.66,North,0,0.0,0.9,64,0.04,,,0.04,WUHU216HW,2013-01-26 19:02:00,
2013-01-26 12:03:00,50.6,38.8,29.66,North,0,0.0,0.9,64,0.04,,,0.04,WUHU216HW,2013-01-26 19:03:00,
2013-01-26 12:04:00,50.6,38.8,29.66,North,0,0.0,0.9,64,0.04,,,0.04,WUHU216HW,2013-01-26 19:04:00,
2013-01-26 12:06:00,50.6,38.8,29.66,North,0,0.0,0.9,64,0.04,,,0.04,WUHU216HW,2013-01-26 19:06:00,
2013-01-26 12:08:00,50.6,39.3,29.66,North,0,0.0,0.0,65,0.04,,,0.04,WUHU216HW,2013-01-26 19:08:00,
2013-01-26 12:09:00,50.6,39.3,29.66,North,0,0.0,0.0,65,0.04,,,0.04,WUHU216HW,2013-01-26 19:09:00,
2013-01-26 12:11:00,50.4,38.6,29.66,North,0,0.0,0.0,64,0.04,,,0.04,WUHU216HW,2013-01-26 19:11:00,
2013-01-26 12:13:00,50.4,38.6,29.66,North,0,0.0,0.0,64,0.04,,,0.04,WUHU216HW,2013-01-26 19:13:00,
2013-01-26 12:15:00,50.4,38.6,29.66,ESE,113,0.4,0.4,64,0.04,,,0.04,WUHU216HW,2013-01-26 19:15:00,
2013-01-26 12:16:00,50.4,38.6,29.66,ESE,113,0.4,0.4,64,0.04,,,0.04,WUHU216HW,2013-01-26 19:16:00,
2013-01-26 12:18:00,50.4,39.1,29.66,ESE,113,0.0,0.4,65,0.05,,,0.04,WUHU216HW,2013-01-26 19:18:00,
2013-01-26 12:20:00,50.4,39.1,29.66,ESE,113,0.4,0.4,65,0.05,,,0.05,WUHU216HW,2013-01-26 19:20:00,
2013-01-26 12:21:00,50.4,39.1,29.66,SE,135,0.7,0.9,65,0.04,,,0.05,WUHU216HW,2013-01-26 19:21:00,
2013-01-26 12:23:00,50.4,39.4,29.66,ESE,113,0.4,0.9,66,0.04,,,0.05,WUHU216HW,2013-01-26 19:23:00,
2013-01-26 12:24:00,50.4,39.4,29.66,ESE,113,0.4,0.9,66,0.04,,,0.05,WUHU216HW,2013-01-26 19:24:00,
2013-01-26 12:25:00,50.4,39.4,29.65,SE,135,1.3,1.3,66,0.04,,,0.05,WUHU216HW,2013-01-26 19:25:00,
2013-01-26 12:26:00,50.0,39.1,29.65,ESE,113,0.7,1.3,66,0.04,,,0.05,WUHU216HW,2013-01-26 19:26:00,
2013-01-26 12:28:00,50.0,39.5,29.65,SE,135,1.6,1.6,67,0.04,,,0.05,WUHU216HW,2013-01-26 19:28:00,
2013-01-26 12:29:00,50.0,39.5,29.65,SE,135,1.6,1.6,67,0.04,,,0.05,WUHU216HW,2013-01-26 19:29:00,
2013-01-26 12:30:00,50.0,39.5,29.65,SE,135,1.1,1.6,67,0.04,,,0.06,WUHU216HW,2013-01-26 19:30:00,
2013-01-26 12:32:00,49.9,39.3,29.65,SE,135,1.8,2.2,67,0.04,,,0.06,WUHU216HW,2013-01-26 19:32:00,
2013-01-26 12:34:00,49.5,39.3,29.65,ESE,113,0.9,2.2,68,0.04,,,0.06,WUHU216HW,2013-01-26 19:34:00,
2013-01-26 12:35:00,49.5,39.3,29.65,SE,135,0.4,2.2,68,0.05,,,0.06,WUHU216HW,2013-01-26 19:35:00,
2013-01-26 12:37:00,49.3,39.2,29.65,ESE,113,0.4,2.2,68,0.05,,,0.07,WUHU216HW,2013-01-26 19:37:00,
2013-01-26 12:39:00,49.1,39.0,29.65,SE,135,0.7,2.2,68,0.05,,,0.07,WUHU216HW,2013-01-26 19:39:00,
2013-01-26 12:40:00,49.1,39.0,29.65,SE,135,0.7,2.2,68,0.06,,,0.07,WUHU216HW,2013-01-26 19:40:00,
2013-01-26 12:42:00,49.0,38.8,29.65,ESE,113,0.4,1.1,68,0.06,,,0.08,WUHU216HW,2013-01-26 19:42:00,
2013-01-26 12:44:00,49.0,39.3,29.65,SE,135,0.2,1.1,69,0.06,,,0.08,WUHU216HW,2013-01-26 19:44:00,
2013-01-26 12:45:00,49.0,39.3,29.65,SE,135,0.2,1.1,69,0.06,,,0.08,WUHU216HW,2013-01-26 19:45:00,
2013-01-26 12:47:00,48.8,39.1,29.65,SE,135,0.4,0.7,69,0.07,,,0.08,WUHU216HW,2013-01-26 19:47:00,
2013-01-26 12:49:00,49.0,39.3,29.64,SE,135,0.0,0.4,69,0.06,,,0.09,WUHU216HW,2013-01-26 19:49:00,
2013-01-26 12:50:00,49.0,39.3,29.64,SE,135,0.0,0.4,69,0.06,,,0.09,WUHU216HW,2013-01-26 19:50:00,
2013-01-26 12:52:00,49.0,39.3,29.64,SE,135,0.0,0.4,69,0.06,,,0.09,WUHU216HW,2013-01-26 19:52:00,
2013-01-26 12:54:00,49.0,39.6,29.64,SE,135,0.0,0.4,70,0.07,,,0.09,WUHU216HW,2013-01-26 19:54:00,
2013-01-26 12:55:00,49.0,39.6,29.64,SE,135,0.0,0.4,70,0.07,,,0.09,WUHU216HW,2013-01-26 19:55:00,
2013-01-26 12:57:00,49.1,39.8,29.64,SE,135,0.0,0.2,70,0.07,,,0.10,WUHU216HW,2013-01-26 19:57:00,
2013-01-26 12:59:00,49.3,40.0,29.63,SE,135,0.0,0.0,70,0.07,,,0.10,WUHU216HW,2013-01-26 19:59:00,
2013-01-26 13:00:00,49.3,40.0,29.63,SE,135,0.0,0.0,70,0.06,,,0.10,WUHU216HW,2013-01-26 20:00:00,
2013-01-26 13:02:00,49.3,40.0,29.63,SE,135,0.0,0.0,70,0.07,,,0.10,WUHU216HW,2013-01-26 20:02:00,
2013-01-26 13:05:00,49.7,40.3,29.62,NNE,23,0.0,0.0,70,0.07,,,0.11,WUHU216HW,2013-01-26 20:05:00,
2013-01-26 13:08:00,49.7,40.7,29.62,North,0,1.3,1.3,71,0.07,,,0.11,WUHU216HW,2013-01-26 20:08:00,
2013-01-26 13:10:00,49.9,41.2,29.62,North,0,0.9,1.6,72,0.07,,,0.11,WUHU216HW,2013-01-26 20:10:00,
2013-01-26 13:13:00,50.0,41.4,29.61,North,0,0.7,1.6,72,0.07,,,0.11,WUHU216HW,2013-01-26 20:13:00,
2013-01-26 13:15:00,50.4,41.8,29.62,NW,315,0.0,1.6,72,0.07,,,0.11,WUHU216HW,2013-01-26 20:15:00,
2013-01-26 13:18:00,50.6,42.2,29.62,SSW,203,3.1,3.1,73,0.06,,,0.11,WUHU216HW,2013-01-26 20:18:00,
2013-01-26 13:20:00,50.8,42.8,29.61,SW,225,0.0,3.1,74,0.06,,,0.11,WUHU216HW,2013-01-26 20:20:00,
2013-01-26 13:23:00,50.8,42.1,29.61,West,270,0.4,3.1,72,0.06,,,0.11,WUHU216HW,2013-01-26 20:23:00,
2013-01-26 13:25:00,50.9,42.3,29.61,South,180,1.6,3.1,72,0.05,,,0.11,WUHU216HW,2013-01-26 20:25:00,
2013-01-26 13:26:00,50.9,42.3,29.61,South,180,1.6,3.1,72,0.05,,,0.11,WUHU216HW,2013-01-26 20:26:00,
2013-01-26 13:28:00,50.9,42.6,29.61,SW,225,0.0,1.6,73,0.05,,,0.11,WUHU216HW,2013-01-26 20:28:00,
2013-01-26 13:30:00,50.9,42.6,29.60,South,180,0.0,1.6,73,0.05,,,0.11,WUHU216HW,2013-01-26 20:30:00,
2013-01-26 13:31:00,50.9,42.6,29.60,SSW,203,0.7,1.6,73,0.05,,,0.11,WUHU216HW,2013-01-26 20:31:00,
2013-01-26 13:34:00,50.9,42.6,29.60,SW,225,1.1,1.6,73,0.04,,,0.11,WUHU216HW,2013-01-26 20:34:00,
2013-01-26 13:35:00,50.9,42.6,29.61,SSW,203,1.1,1.1,73,0.04,,,0.11,WUHU216HW,2013-01-26 20:35:00,
2013-01-26 13:36:00,50.9,42.6,29.61,SSW,203,1.1,1.1,73,0.04,,,0.11,WUHU216HW,2013-01-26 20:36:00,
2013-01-26 13:39:00,51.1,42.8,29.60,SW,225,1.1,1.3,73,0.03,,,0.11,WUHU216HW,2013-01-26 20:39:00,
2013-01-26 13:41:00,51.1,42.8,29.60,SW,225,0.0,1.3,73,0.03,,,0.11,WUHU216HW,2013-01-26 20:41:00,
2013-01-26 13:44:00,51.1,42.8,29.60,South,180,0.0,1.3,73,0.02,,,0.11,WUHU216HW,2013-01-26 20:44:00,
2013-01-26 13:46:00,51.1,42.8,29.60,South,180,1.3,1.3,73,0.02,,,0.11,WUHU216HW,2013-01-26 20:46:00,
2013-01-26 13:47:00,51.1,42.8,29.60,South,180,0.4,1.3,73,0.02,,,0.11,WUHU216HW,2013-01-26 20:47:00,
2013-01-26 13:49:00,51.1,43.1,29.60,SSW,203,2.7,2.7,74,0.02,,,0.11,WUHU216HW,2013-01-26 20:49:00,
2013-01-26 13:51:00,51.1,43.1,29.60,SSW,203,1.8,2.7,74,0.02,,,0.11,WUHU216HW,2013-01-26 20:51:00,
2013-01-26 13:52:00,51.1,43.1,29.59,South,180,2.7,2.7,74,0.02,,,0.11,WUHU216HW,2013-01-26 20:52:00,
2013-01-26 13:54:00,51.1,43.1,29.59,South,180,1.8,2.7,74,0.01,,,0.11,WUHU216HW,2013-01-26 20:54:00,
2013-01-26 13:56:00,51.1,43.1,29.59,SSW,203,2.0,2.7,74,0.01,,,0.11,WUHU216HW,2013-01-26 20:56:00,
2013-01-26 13:57:00,51.3,43.3,29.59,SSW,203,3.4,3.4,74,0.01,,,0.11,WUHU216HW,2013-01-26 20:57:00,
2013-01-26 13:59:00,51.5,43.8,29.59,SW,225,3.6,3.8,75,0.01,,,0.11,WUHU216HW,2013-01-26 20:59:00,
2013-01-26 14:01:00,51.5,43.8,29.59,SW,225,2.2,3.8,75,0.00,,,0.11,WUHU216HW,2013-01-26 21:01:00,
2013-01-26 14:02:00,51.5,44.2,29.59,SSW,203,2.5,3.8,76,0.00,,,0.11,WUHU216HW,2013-01-26 21:02:00,
2013-01-26 14:05:00,51.7,44.0,29.59,SW,225,2.5,3.8,75,0.00,,,0.11,WUHU216HW,2013-01-26 21:05:00,
2013-01-26 14:06:00,51.8,44.6,29.58,SW,225,1.3,3.8,76,0.00,,,0.11,WUHU216HW,2013-01-26 21:06:00,
2013-01-26 14:07:00,51.8,44.6,29.59,SW,225,1.8,3.8,76,0.00,,,0.11,WUHU216HW,2013-01-26 21:07:00,
2013-01-26 14:10:00,51.8,44.2,29.58,SW,225,2.5,2.5,75,0.00,,,0.11,WUHU216HW,2013-01-26 21:10:00,
2013-01-26 14:11:00,52.2,45.2,29.58,SSW,203,2.2,2.5,77,0.00,,,0.11,WUHU216HW,2013-01-26 21:11:00,
2013-01-26 14:12:00,52.2,45.2,29.59,SSW,203,2.9,2.9,77,0.00,,,0.11,WUHU216HW,2013-01-26 21:12:00,
2013-01-26 14:15:00,52.2,44.9,29.59,SW,225,3.4,3.6,76,0.00,,,0.11,WUHU216HW,2013-01-26 21:15:00,
2013-01-26 14:16:00,52.2,44.9,29.59,SSW,203,2.9,3.6,76,0.00,,,0.11,WUHU216HW,2013-01-26 21:16:00,
2013-01-26 14:17:00,52.2,44.9,29.59,SSW,203,2.9,3.6,76,0.00,,,0.11,WUHU216HW,2013-01-26 21:17:00,
2013-01-26 14:20:00,52.4,44.7,29.58,SSE,158,1.8,3.6,75,0.00,,,0.11,WUHU216HW,2013-01-26 21:20:00,
2013-01-26 14:21:00,52.4,44.7,29.58,SSW,203,1.8,3.6,75,0.00,,,0.11,WUHU216HW,2013-01-26 21:21:00,
2013-01-26 14:22:00,52.4,44.7,29.59,South,180,2.5,3.6,75,0.01,,,0.11,WUHU216HW,2013-01-26 21:22:00,
2013-01-26 14:25:00,52.6,44.9,29.59,South,180,1.3,3.1,75,0.01,,,0.12,WUHU216HW,2013-01-26 21:25:00,
2013-01-26 14:26:00,52.6,44.9,29.58,SW,225,1.8,3.1,75,0.01,,,0.12,WUHU216HW,2013-01-26 21:26:00,
2013-01-26 14:27:00,52.6,44.9,29.58,SSW,203,2.7,3.1,75,0.01,,,0.12,WUHU216HW,2013-01-26 21:27:00,
2013-01-26 14:30:00,52.9,45.2,29.58,SSW,203,0.7,2.9,75,0.01,,,0.12,WUHU216HW,2013-01-26 21:30:00,
2013-01-26 14:32:00,52.9,45.2,29.58,SSW,203,0.9,2.9,75,0.01,,,0.12,WUHU216HW,2013-01-26 21:32:00,
2013-01-26 14:35:00,53.3,45.5,29.58,ENE,68,0.2,2.7,75,0.01,,,0.12,WUHU216HW,2013-01-26 21:35:00,
2013-01-26 14:37:00,53.5,45.7,29.58,ENE,68,0.0,2.7,75,0.01,,,0.12,WUHU216HW,2013-01-26 21:37:00,
2013-01-26 14:41:00,53.6,45.5,29.57,SSE,158,0.0,1.3,74,0.01,,,0.12,WUHU216HW,2013-01-26 21:41:00,
2013-01-26 14:42:00,53.6,45.5,29.57,SSW,203,0.0,1.3,74,0.01,,,0.12,WUHU216HW,2013-01-26 21:42:00,
2013-01-26 14:46:00,53.6,45.2,29.57,NNW,338,0.0,1.3,73,0.01,,,0.12,WUHU216HW,2013-01-26 21:46:00,
2013-01-26 14:47:00,53.8,45.4,29.57,NNW,338,1.1,1.1,73,0.01,,,0.12,WUHU216HW,2013-01-26 21:47:00,
2013-01-26 14:51:00,54.0,45.9,29.57,North,0,1.3,1.6,74,0.01,,,0.12,WUHU216HW,2013-01-26 21:51:00,
2013-01-26 14:52:00,54.4,46.3,29.57,North,0,1.1,1.6,74,0.01,,,0.12,WUHU216HW,2013-01-26 21:52:00,
2013-01-26 14:53:00,54.4,46.3,29.57,North,0,1.1,1.6,74,0.01,,,0.12,WUHU216HW,2013-01-26 21:53:00,
2013-01-26 14:56:00,54.4,46.3,29.57,West,270,0.4,1.6,74,0.01,,,0.12,WUHU216HW,2013-01-26 21:56:00,
2013-01-26 14:57:00,54.4,45.9,29.57,SW,225,1.1,1.6,73,0.01,,,0.12,WUHU216HW,2013-01-26 21:57:00,
2013-01-26 14:58:00,54.4,46.3,29.57,SSW,203,3.1,3.1,74,0.01,,,0.12,WUHU216HW,2013-01-26 21:58:00,
2013-01-26 14:59:00,54.4,46.3,29.57,SW,225,0.7,3.1,74,0.01,,,0.12,WUHU216HW,2013-01-26 21:59:00,
2013-01-26 15:01:00,54.5,46.8,29.57,SSW,203,3.4,3.4,75,0.01,,,0.12,WUHU216HW,2013-01-26 22:01:00,
2013-01-26 15:02:00,54.5,46.5,29.57,South,180,2.7,3.4,74,0.01,,,0.12,WUHU216HW,2013-01-26 22:02:00,
2013-01-26 15:03:00,54.5,46.5,29.57,South,180,5.6,5.6,74,0.01,,,0.12,WUHU216HW,2013-01-26 22:03:00,
2013-01-26 15:04:00,54.5,46.8,29.57,South,180,4.3,5.6,75,0.01,,,0.12,WUHU216HW,2013-01-26 22:04:00,
2013-01-26 15:06:00,54.4,46.6,29.57,SW,225,2.7,5.6,75,0.01,,,0.12,WUHU216HW,2013-01-26 22:06:00,
2013-01-26 15:07:00,54.5,46.8,29.57,SSW,203,1.8,5.6,75,0.01,,,0.12,WUHU216HW,2013-01-26 22:07:00,
2013-01-26 15:08:00,54.5,46.8,29.57,SW,225,3.4,5.6,75,0.01,,,0.12,WUHU216HW,2013-01-26 22:08:00,
2013-01-26 15:09:00,54.5,46.8,29.57,South,180,5.8,5.8,75,0.01,,,0.12,WUHU216HW,2013-01-26 22:09:00,
2013-01-26 15:11:00,54.4,46.6,29.57,South,180,5.6,5.8,75,0.01,,,0.12,WUHU216HW,2013-01-26 22:11:00,
2013-01-26 15:12:00,54.4,46.3,29.57,South,180,3.4,5.8,74,0.01,,,0.12,WUHU216HW,2013-01-26 22:12:00,
2013-01-26 15:13:00,54.4,46.6,29.57,SW,225,0.4,5.8,75,0.01,,,0.12,WUHU216HW,2013-01-26 22:13:00,
2013-01-26 15:14:00,54.5,46.5,29.57,SW,225,0.0,5.8,74,0.01,,,0.12,WUHU216HW,2013-01-26 22:14:00,
2013-01-26 15:16:00,54.5,46.8,29.57,West,270,1.8,5.8,75,0.01,,,0.12,WUHU216HW,2013-01-26 22:16:00,
2013-01-26 15:17:00,54.4,46.6,29.57,WSW,248,2.7,5.8,75,0.01,,,0.12,WUHU216HW,2013-01-26 22:17:00,
2013-01-26 15:18:00,54.5,46.8,29.57,WSW,248,2.9,5.8,75,0.01,,,0.12,WUHU216HW,2013-01-26 22:18:00,
2013-01-26 15:20:00,54.5,47.1,29.57,South,180,0.7,5.6,76,0.00,,,0.12,WUHU216HW,2013-01-26 22:20:00,
2013-01-26 15:21:00,54.5,46.8,29.57,SSE,158,1.6,3.4,75,0.00,,,0.12,WUHU216HW,2013-01-26 22:21:00,
2013-01-26 15:23:00,54.5,46.8,29.57,WSW,248,1.3,2.9,75,0.00,,,0.12,WUHU216HW,2013-01-26 22:23:00,
2013-01-26 15:24:00,54.7,47.3,29.57,WSW,248,1.8,2.9,76,0.00,,,0.12,WUHU216HW,2013-01-26 22:24:00,
2013-01-26 15:25:00,54.5,46.8,29.57,SSE,158,0.0,2.9,75,0.00,,,0.12,WUHU216HW,2013-01-26 22:25:00,
2013-01-26 15:26:00,54.7,46.9,29.57,ESE,113,0.4,2.9,75,0.00,,,0.12,WUHU216HW,2013-01-26 22:26:00,
2013-01-26 15:28:00,54.7,46.9,29.57,South,180,1.1,2.9,75,0.00,,,0.12,WUHU216HW,2013-01-26 22:28:00,
2013-01-26 15:29:00,54.7,46.9,29.57,SSW,203,2.5,2.5,75,0.00,,,0.12,WUHU216HW,2013-01-26 22:29:00,
2013-01-26 15:30:00,54.7,46.9,29.56,SSW,203,1.8,3.1,75,0.00,,,0.12,WUHU216HW,2013-01-26 22:30:00,
2013-01-26 15:31:00,54.7,46.9,29.56,SSW,203,2.9,3.1,75,0.00,,,0.12,WUHU216HW,2013-01-26 22:31:00,
2013-01-26 15:33:00,54.9,46.7,29.56,SW,225,2.5,3.1,74,0.00,,,0.12,WUHU216HW,2013-01-26 22:33:00,
2013-01-26 15:34:00,54.9,46.7,29.56,SW,225,1.1,3.1,74,0.00,,,0.12,WUHU216HW,2013-01-26 22:34:00,
2013-01-26 15:35:00,54.9,46.7,29.56,SSW,203,1.1,3.1,74,0.00,,,0.12,WUHU216HW,2013-01-26 22:35:00,
2013-01-26 15:37:00,54.9,46.7,29.56,South,180,1.1,3.1,74,0.00,,,0.12,WUHU216HW,2013-01-26 22:37:00,
2013-01-26 15:38:00,55.1,46.9,29.56,ESE,113,1.8,3.1,74,0.00,,,0.12,WUHU216HW,2013-01-26 22:38:00,
2013-01-26 15:39:00,55.1,46.9,29.56,ESE,113,0.0,2.9,74,0.00,,,0.12,WUHU216HW,2013-01-26 22:39:00,
2013-01-26 15:40:00,55.1,46.9,29.56,ESE,113,0.0,2.9,74,0.00,,,0.12,WUHU216HW,2013-01-26 22:40:00,
2013-01-26 15:42:00,55.1,46.6,29.55,NE,45,2.2,2.2,73,0.00,,,0.12,WUHU216HW,2013-01-26 22:42:00,
2013-01-26 15:43:00,55.1,46.6,29.55,NE,45,2.2,2.2,73,0.00,,,0.12,WUHU216HW,2013-01-26 22:43:00,
2013-01-26 15:44:00,55.1,46.6,29.55,ESE,113,0.7,2.2,73,0.00,,,0.12,WUHU216HW,2013-01-26 22:44:00,
2013-01-26 15:45:00,55.1,46.6,29.55,ESE,113,0.7,2.2,73,0.00,,,0.12,WUHU216HW,2013-01-26 22:45:00,
2013-01-26 15:47:00,55.1,46.6,29.55,ESE,113,1.1,2.2,73,0.00,,,0.12,WUHU216HW,2013-01-26 22:47:00,
2013-01-26 15:48:00,55.1,46.6,29.55,ESE,113,1.1,2.2,73,0.00,,,0.12,WUHU216HW,2013-01-26 22:48:00,
2013-01-26 15:49:00,55.1,46.6,29.55,SE,135,0.7,2.2,73,0.00,,,0.12,WUHU216HW,2013-01-26 22:49:00,
2013-01-26 15:50:00,55.1,46.6,29.55,SE,135,0.2,2.2,73,0.00,,,0.12,WUHU216HW,2013-01-26 22:50:00,
2013-01-26 15:53:00,55.1,46.6,29.55,ENE,68,0.7,1.8,73,0.00,,,0.12,WUHU216HW,2013-01-26 22:53:00,
2013-01-26 15:54:00,55.1,46.6,29.55,ENE,68,0.0,1.1,73,0.00,,,0.12,WUHU216HW,2013-01-26 22:54:00,
2013-01-26 15:56:00,55.1,46.6,29.55,ENE,68,0.0,1.1,73,0.00,,,0.12,WUHU216HW,2013-01-26 22:56:00,
2013-01-26 15:58:00,55.1,46.6,29.55,ESE,113,1.3,1.3,73,0.00,,,0.12,WUHU216HW,2013-01-26 22:58:00,
2013-01-26 16:00:00,55.1,46.6,29.55,ESE,113,0.4,1.3,73,0.00,,,0.12,WUHU216HW,2013-01-26 23:00:00,
2013-01-26 16:01:00,55.3,46.7,29.55,ESE,113,0.0,1.3,73,0.00,,,0.12,WUHU216HW,2013-01-26 23:01:00,
2013-01-26 16:03:00,55.3,46.7,29.55,ESE,113,0.0,1.3,73,0.00,,,0.12,WUHU216HW,2013-01-26 23:03:00,
2013-01-26 16:04:00,55.1,46.6,29.55,ESE,113,0.0,1.3,73,0.00,,,0.12,WUHU216HW,2013-01-26 23:04:00,
2013-01-26 16:05:00,55.3,46.7,29.55,ESE,113,0.0,1.3,73,0.00,,,0.12,WUHU216HW,2013-01-26 23:05:00,
2013-01-26 16:06:00,55.3,46.7,29.55,ESE,113,0.0,1.3,73,0.00,,,0.12,WUHU216HW,2013-01-26 23:06:00,
2013-01-26 16:08:00,55.3,46.7,29.55,ESE,113,0.0,0.7,73,0.00,,,0.12,WUHU216HW,2013-01-26 23:08:00,
2013-01-26 16:09:00,55.3,46.7,29.55,ESE,113,0.0,0.7,73,0.00,,,0.12,WUHU216HW,2013-01-26 23:09:00,
2013-01-26 16:10:00,55.3,46.7,29.55,ESE,113,0.0,0.0,73,0.00,,,0.12,WUHU216HW,2013-01-26 23:10:00,
2013-01-26 16:11:00,55.3,46.7,29.55,ESE,113,0.0,0.0,73,0.00,,,0.12,WUHU216HW,2013-01-26 23:11:00,
2013-01-26 16:14:00,55.4,46.9,29.55,ESE,113,0.0,0.0,73,0.00,,,0.12,WUHU216HW,2013-01-26 23:14:00,
2013-01-26 16:15:00,55.4,46.9,29.56,WSW,248,0.4,0.4,73,0.00,,,0.12,WUHU216HW,2013-01-26 23:15:00,
2013-01-26 16:16:00,55.4,46.9,29.55,West,270,0.0,0.4,73,0.00,,,0.12,WUHU216HW,2013-01-26 23:16:00,
2013-01-26 16:19:00,55.4,46.9,29.56,WNW,293,0.0,0.4,73,0.00,,,0.12,WUHU216HW,2013-01-26 23:19:00,
2013-01-26 16:20:00,55.4,46.9,29.55,North,0,0.4,0.4,73,0.00,,,0.12,WUHU216HW,2013-01-26 23:20:00,
2013-01-26 16:21:00,55.4,46.9,29.55,North,0,0.0,0.4,73,0.00,,,0.12,WUHU216HW,2013-01-26 23:21:00,
2013-01-26 16:24:00,55.4,46.9,29.55,North,0,0.0,0.4,73,0.00,,,0.12,WUHU216HW,2013-01-26 23:24:00,
2013-01-26 16:25:00,55.4,46.9,29.55,North,0,0.0,0.4,73,0.00,,,0.12,WUHU216HW,2013-01-26 23:25:00,
2013-01-26 16:26:00,55.4,46.9,29.55,North,0,0.0,0.4,73,0.00,,,0.12,WUHU216HW,2013-01-26 23:26:00,
2013-01-26 16:29:00,55.4,46.9,29.55,North,0,0.0,0.4,73,0.00,,,0.12,WUHU216HW,2013-01-26 23:29:00,
2013-01-26 16:30:00,55.4,46.9,29.55,North,0,0.0,0.0,73,0.00,,,0.12,WUHU216HW,2013-01-26 23:30:00,
2013-01-26 16:32:00,55.4,46.9,29.55,North,0,0.0,0.0,73,0.00,,,0.12,WUHU216HW,2013-01-26 23:32:00,
2013-01-26 16:34:00,55.4,46.9,29.55,ESE,113,0.7,0.7,73,0.00,,,0.12,WUHU216HW,2013-01-26 23:34:00,
2013-01-26 16:36:00,55.4,46.9,29.55,SSE,158,1.1,1.1,73,0.00,,,0.12,WUHU216HW,2013-01-26 23:36:00,
2013-01-26 16:37:00,55.4,46.9,29.55,SSE,158,1.1,1.1,73,0.00,,,0.12,WUHU216HW,2013-01-26 23:37:00,
2013-01-26 16:39:00,55.4,46.9,29.55,SSE,158,3.1,3.1,73,0.00,,,0.12,WUHU216HW,2013-01-26 23:39:00,
2013-01-26 16:41:00,55.3,47.1,29.54,SE,135,2.5,3.1,74,0.00,,,0.12,WUHU216HW,2013-01-26 23:41:00,
2013-01-26 16:42:00,55.3,47.1,29.54,ESE,113,1.8,3.1,74,0.00,,,0.12,WUHU216HW,2013-01-26 23:42:00,
2013-01-26 16:44:00,55.3,47.4,29.54,SE,135,1.6,3.1,75,0.00,,,0.12,WUHU216HW,2013-01-26 23:44:00,
2013-01-26 16:46:00,55.3,47.4,29.54,South,180,6.9,6.9,75,0.00,,,0.12,WUHU216HW,2013-01-26 23:46:00,
2013-01-26 16:47:00,55.3,47.8,29.54,South,180,4.7,6.9,76,0.00,,,0.12,WUHU216HW,2013-01-26 23:47:00,
2013-01-26 16:49:00,55.4,48.0,29.54,SSE,158,9.2,9.2,76,0.00,,,0.12,WUHU216HW,2013-01-26 23:49:00,
2013-01-26 16:51:00,55.4,48.0,29.54,SW,225,5.8,9.2,76,0.00,,,0.12,WUHU216HW,2013-01-26 23:51:00,
2013-01-26 16:52:00,55.4,48.3,29.54,SE,135,8.1,9.2,77,0.00,,,0.12,WUHU216HW,2013-01-26 23:52:00,
2013-01-26 16:54:00,55.8,48.3,29.54,SSW,203,4.9,9.2,76,0.00,,,0.12,WUHU216HW,2013-01-26 23:54:00,
2013-01-26 16:56:00,55.8,48.3,29.54,SSW,203,6.5,9.2,76,0.00,,,0.12,WUHU216HW,2013-01-26 23:56:00,
2013-01-26 16:57:00,55.8,48.3,29.54,South,180,6.5,9.2,76,0.00,,,0.12,WUHU216HW,2013-01-26 23:57:00,
2013-01-26 16:59:00,55.8,48.3,29.54,South,180,14.1,14.1,76,0.00,,,0.12,WUHU216HW,2013-01-26 23:59:00,
2013-01-26 17:01:00,56.0,48.5,29.54,SSE,158,13.9,14.1,76,0.00,,,0.12,WUHU216HW,2013-01-27 00:01:00,
2013-01-26 17:02:00,56.0,48.2,29.54,SSW,203,10.5,14.1,75,0.00,,,0.12,WUHU216HW,2013-01-27 00:02:00,
2013-01-26 17:04:00,56.0,48.2,29.54,South,180,9.2,14.1,75,0.00,,,0.12,WUHU216HW,2013-01-27 00:04:00,
2013-01-26 17:06:00,56.0,48.2,29.54,SSE,158,5.4,14.1,75,0.00,,,0.12,WUHU216HW,2013-01-27 00:06:00,
2013-01-26 17:07:00,56.0,48.2,29.54,South,180,9.6,14.1,75,0.00,,,0.12,WUHU216HW,2013-01-27 00:07:00,
2013-01-26 17:09:00,55.8,48.0,29.54,SSE,158,11.2,14.3,75,0.00,,,0.12,WUHU216HW,2013-01-27 00:09:00,
2013-01-26 17:10:00,55.8,48.0,29.54,South,180,12.3,14.3,75,0.00,,,0.12,WUHU216HW,2013-01-27 00:10:00,
2013-01-26 17:11:00,55.8,48.0,29.54,South,180,9.4,14.3,75,0.00,,,0.12,WUHU216HW,2013-01-27 00:11:00,
2013-01-26 17:12:00,55.8,48.0,29.54,South,180,11.4,14.3,75,0.00,,,0.12,WUHU216HW,2013-01-27 00:12:00,
2013-01-26 17:14:00,55.8,48.0,29.54,South,180,9.2,14.3,75,0.00,,,0.12,WUHU216HW,2013-01-27 00:14:00,
2013-01-26 17:15:00,55.8,48.0,29.54,SSW,203,7.6,14.3,75,0.00,,,0.12,WUHU216HW,2013-01-27 00:15:00,
2013-01-26 17:16:00,55.6,47.8,29.54,South,180,6.5,14.3,75,0.00,,,0.12,WUHU216HW,2013-01-27 00:16:00,
2013-01-26 17:17:00,55.6,47.8,29.54,South,180,4.9,14.3,75,0.00,,,0.12,WUHU216HW,2013-01-27 00:17:00,
2013-01-26 17:20:00,55.6,47.8,29.54,SSE,158,8.5,11.4,75,0.00,,,0.12,WUHU216HW,2013-01-27 00:20:00,
2013-01-26 17:21:00,55.4,47.6,29.55,SSW,203,5.4,11.4,75,0.00,,,0.12,WUHU216HW,2013-01-27 00:21:00,
2013-01-26 17:22:00,55.4,47.6,29.55,South,180,11.0,11.0,75,0.00,,,0.12,WUHU216HW,2013-01-27 00:22:00,
2013-01-26 17:25:00,55.4,47.6,29.55,South,180,6.7,13.9,75,0.00,,,0.12,WUHU216HW,2013-01-27 00:25:00,
2013-01-26 17:27:00,55.4,48.0,29.55,SSW,203,9.4,13.9,76,0.00,,,0.12,WUHU216HW,2013-01-27 00:27:00,
2013-01-26 17:30:00,55.3,47.8,29.55,South,180,9.2,13.9,76,0.00,,,0.12,WUHU216HW,2013-01-27 00:30:00,
2013-01-26 17:32:00,55.3,47.8,29.55,SSW,203,7.2,13.9,76,0.00,,,0.12,WUHU216HW,2013-01-27 00:32:00,
2013-01-26 17:33:00,55.3,47.8,29.55,South,180,9.6,13.9,76,0.00,,,0.12,WUHU216HW,2013-01-27 00:33:00,
2013-01-26 17:35:00,55.1,47.6,29.56,SSW,203,9.2,12.3,76,0.00,,,0.12,WUHU216HW,2013-01-27 00:35:00,
2013-01-26 17:36:00,55.1,47.6,29.56,SSW,203,9.2,12.3,76,0.00,,,0.12,WUHU216HW,2013-01-27 00:36:00,
2013-01-26 17:37:00,55.1,47.6,29.56,SSW,203,6.0,12.3,76,0.00,,,0.12,WUHU216HW,2013-01-27 00:37:00,
2013-01-26 17:38:00,55.1,48.0,29.56,SSW,203,7.8,12.3,77,0.00,,,0.12,WUHU216HW,2013-01-27 00:38:00,
2013-01-26 17:40:00,55.1,48.0,29.57,SW,225,8.5,9.6,77,0.00,,,0.12,WUHU216HW,2013-01-27 00:40:00,
2013-01-26 17:41:00,55.1,48.0,29.57,SW,225,8.5,9.6,77,0.00,,,0.12,WUHU216HW,2013-01-27 00:41:00,
2013-01-26 17:42:00,55.1,48.3,29.57,WSW,248,7.8,9.2,78,0.00,,,0.12,WUHU216HW,2013-01-27 00:42:00,
2013-01-26 17:43:00,55.1,48.3,29.57,SW,225,11.2,11.2,78,0.00,,,0.12,WUHU216HW,2013-01-27 00:43:00,
2013-01-26 17:45:00,54.7,46.3,29.58,WSW,248,10.3,12.5,73,0.00,,,0.12,WUHU216HW,2013-01-27 00:45:00,
2013-01-26 17:46:00,54.7,46.3,29.58,WSW,248,10.3,12.5,73,0.00,,,0.12,WUHU216HW,2013-01-27 00:46:00,
2013-01-26 17:48:00,54.4,45.2,29.58,WSW,248,6.5,12.5,71,0.00,,,0.12,WUHU216HW,2013-01-27 00:48:00,
2013-01-26 17:50:00,53.6,44.1,29.57,WSW,248,7.2,12.5,70,0.00,,,0.12,WUHU216HW,2013-01-27 00:50:00,
2013-01-26 17:51:00,53.6,44.1,29.57,WSW,248,7.2,12.5,70,0.00,,,0.12,WUHU216HW,2013-01-27 00:51:00,
2013-01-26 17:53:00,53.3,43.7,29.57,WSW,248,4.9,12.5,70,0.00,,,0.12,WUHU216HW,2013-01-27 00:53:00,
2013-01-26 17:56:00,52.9,43.8,29.57,SSW,203,3.4,8.5,71,0.00,,,0.12,WUHU216HW,2013-01-27 00:56:00,
2013-01-26 17:58:00,52.7,43.7,29.57,SSW,203,2.5,8.5,71,0.00,,,0.12,WUHU216HW,2013-01-27 00:58:00,
2013-01-26 18:01:00,52.2,43.1,29.57,South,180,3.6,6.7,71,0.00,,,0.12,WUHU216HW,2013-01-27 01:01:00,
2013-01-26 18:03:00,52.2,43.1,29.57,SSW,203,4.0,6.7,71,0.00,,,0.12,WUHU216HW,2013-01-27 01:03:00,
2013-01-26 18:06:00,52.2,43.5,29.57,SSW,203,4.0,4.7,72,0.00,,,0.12,WUHU216HW,2013-01-27 01:06:00,
2013-01-26 18:08:00,52.2,43.5,29.57,SW,225,4.3,4.3,72,0.00,,,0.12,WUHU216HW,2013-01-27 01:08:00,
2013-01-26 18:11:00,52.0,43.3,29.57,SSW,203,5.1,5.1,72,0.00,,,0.12,WUHU216HW,2013-01-27 01:11:00,
2013-01-26 18:13:00,52.0,43.3,29.57,SSW,203,2.5,5.1,72,0.00,,,0.12,WUHU216HW,2013-01-27 01:13:00,
2013-01-26 18:14:00,52.0,43.3,29.57,SSW,203,2.5,5.1,72,0.00,,,0.12,WUHU216HW,2013-01-27 01:14:00,
2013-01-26 18:16:00,51.8,43.2,29.57,WSW,248,2.7,5.1,72,0.00,,,0.12,WUHU216HW,2013-01-27 01:16:00,
2013-01-26 18:19:00,51.7,43.0,29.58,WSW,248,2.7,5.1,72,0.00,,,0.12,WUHU216HW,2013-01-27 01:19:00,
2013-01-26 18:21:00,51.7,43.0,29.58,SSW,203,2.7,4.5,72,0.00,,,0.12,WUHU216HW,2013-01-27 01:21:00,
2013-01-26 18:24:00,51.7,43.0,29.58,SSE,158,2.7,4.5,72,0.00,,,0.12,WUHU216HW,2013-01-27 01:24:00,
2013-01-26 18:26:00,51.5,42.9,29.58,SSE,158,3.4,3.8,72,0.00,,,0.12,WUHU216HW,2013-01-27 01:26:00,
2013-01-26 18:27:00,51.5,42.9,29.58,SSE,158,3.4,3.8,72,0.00,,,0.12,WUHU216HW,2013-01-27 01:27:00,
2013-01-26 18:29:00,51.5,42.9,29.58,South,180,5.1,5.1,72,0.00,,,0.12,WUHU216HW,2013-01-27 01:29:00,
2013-01-26 18:31:00,51.1,42.8,29.58,SSE,158,4.9,5.1,73,0.00,,,0.12,WUHU216HW,2013-01-27 01:31:00,
2013-01-26 18:32:00,51.1,42.8,29.58,SSE,158,4.9,5.1,73,0.00,,,0.12,WUHU216HW,2013-01-27 01:32:00,
2013-01-26 18:34:00,51.1,43.1,29.58,SSE,158,3.6,5.1,74,0.00,,,0.12,WUHU216HW,2013-01-27 01:34:00,
2013-01-26 18:36:00,50.9,42.6,29.58,SSW,203,2.7,5.1,73,0.00,,,0.12,WUHU216HW,2013-01-27 01:36:00,
2013-01-26 18:37:00,50.9,42.6,29.58,SSW,203,2.7,5.1,73,0.00,,,0.12,WUHU216HW,2013-01-27 01:37:00,
2013-01-26 18:39:00,50.8,42.4,29.58,SSW,203,2.7,4.9,73,0.00,,,0.12,WUHU216HW,2013-01-27 01:39:00,
2013-01-26 18:41:00,50.8,42.4,29.58,SSW,203,2.9,4.7,73,0.00,,,0.12,WUHU216HW,2013-01-27 01:41:00,
2013-01-26 18:42:00,50.8,42.4,29.58,SSW,203,3.6,3.6,73,0.00,,,0.12,WUHU216HW,2013-01-27 01:42:00,
2013-01-26 18:44:00,50.8,42.8,29.58,SSW,203,2.7,3.6,74,0.00,,,0.12,WUHU216HW,2013-01-27 01:44:00,
2013-01-26 18:46:00,50.8,42.4,29.58,SSW,203,3.1,4.0,73,0.00,,,0.12,WUHU216HW,2013-01-27 01:46:00,
2013-01-26 18:47:00,50.8,42.4,29.58,SSW,203,3.1,4.0,73,0.00,,,0.12,WUHU216HW,2013-01-27 01:47:00,
2013-01-26 18:49:00,50.8,42.4,29.58,SW,225,2.9,4.0,73,0.00,,,0.12,WUHU216HW,2013-01-27 01:49:00,
2013-01-26 18:51:00,50.8,42.4,29.58,SW,225,4.0,4.7,73,0.00,,,0.12,WUHU216HW,2013-01-27 01:51:00,
2013-01-26 18:52:00,50.8,42.4,29.58,SW,225,4.0,4.7,73,0.00,,,0.12,WUHU216HW,2013-01-27 01:52:00,
2013-01-26 18:54:00,50.8,42.8,29.58,SW,225,4.3,4.7,74,0.00,,,0.12,WUHU216HW,2013-01-27 01:54:00,
2013-01-26 18:55:00,50.8,42.8,29.58,SW,225,3.6,4.7,74,0.00,,,0.12,WUHU216HW,2013-01-27 01:55:00,
2013-01-26 18:57:00,50.8,42.8,29.58,WSW,248,4.0,4.7,74,0.00,,,0.12,WUHU216HW,2013-01-27 01:57:00,
2013-01-26 18:59:00,50.8,42.8,29.58,WSW,248,3.1,4.7,74,0.00,,,0.12,WUHU216HW,2013-01-27 01:59:00,
2013-01-26 19:00:00,50.8,42.8,29.58,WSW,248,4.5,4.5,74,0.00,,,0.12,WUHU216HW,2013-01-27 02:00:00,
2013-01-26 19:02:00,50.8,42.8,29.59,WSW,248,4.0,4.7,74,0.00,,,0.12,WUHU216HW,2013-01-27 02:02:00,
2013-01-26 19:04:00,50.8,42.4,29.58,West,270,1.6,4.7,73,0.00,,,0.12,WUHU216HW,2013-01-27 02:04:00,
2013-01-26 19:06:00,50.8,42.4,29.59,West,270,2.0,4.7,73,0.00,,,0.12,WUHU216HW,2013-01-27 02:06:00,
2013-01-26 19:07:00,50.8,42.4,29.59,West,270,2.7,4.7,73,0.00,,,0.12,WUHU216HW,2013-01-27 02:07:00,
2013-01-26 19:09:00,50.9,42.6,29.59,West,270,1.8,4.7,73,0.00,,,0.12,WUHU216HW,2013-01-27 02:09:00,
2013-01-26 19:11:00,50.9,42.6,29.59,West,270,1.8,4.0,73,0.00,,,0.12,WUHU216HW,2013-01-27 02:11:00,
2013-01-26 19:12:00,50.9,42.6,29.59,WSW,248,1.8,3.4,73,0.00,,,0.12,WUHU216HW,2013-01-27 02:12:00,
2013-01-26 19:13:00,50.9,42.6,29.59,WSW,248,1.8,3.4,73,0.00,,,0.12,WUHU216HW,2013-01-27 02:13:00,
2013-01-26 19:14:00,50.9,42.6,29.59,WSW,248,2.5,3.4,73,0.00,,,0.12,WUHU216HW,2013-01-27 02:14:00,
2013-01-26 19:16:00,50.9,42.6,29.59,SW,225,2.2,4.5,73,0.00,,,0.12,WUHU216HW,2013-01-27 02:16:00,
2013-01-26 19:17:00,50.8,42.4,29.59,SW,225,3.6,4.5,73,0.00,,,0.12,WUHU216HW,2013-01-27 02:17:00,
2013-01-26 19:18:00,50.8,42.4,29.59,SW,225,3.6,4.5,73,0.00,,,0.12,WUHU216HW,2013-01-27 02:18:00,
2013-01-26 19:19:00,50.8,42.4,29.59,SW,225,2.5,4.5,73,0.00,,,0.12,WUHU216HW,2013-01-27 02:19:00,
2013-01-26 19:21:00,50.8,42.4,29.59,SSW,203,1.6,4.5,73,0.00,,,0.12,WUHU216HW,2013-01-27 02:21:00,
2013-01-26 19:22:00,50.8,42.4,29.59,South,180,1.8,4.5,73,0.00,,,0.12,WUHU216HW,2013-01-27 02:22:00,
2013-01-26 19:23:00,50.8,42.4,29.59,South,180,1.8,4.5,73,0.00,,,0.12,WUHU216HW,2013-01-27 02:23:00,
2013-01-26 19:24:00,50.8,42.4,29.59,South,180,2.2,4.5,73,0.00,,,0.12,WUHU216HW,2013-01-27 02:24:00,
2013-01-26 19:26:00,50.8,42.4,29.59,SW,225,1.8,3.6,73,0.00,,,0.12,WUHU216HW,2013-01-27 02:26:00,
2013-01-26 19:27:00,50.8,42.4,29.59,SW,225,1.6,2.5,73,0.00,,,0.12,WUHU216HW,2013-01-27 02:27:00,
2013-01-26 19:28:00,50.8,42.4,29.59,SW,225,2.5,2.5,73,0.00,,,0.12,WUHU216HW,2013-01-27 02:28:00,
2013-01-26 19:30:00,50.8,42.4,29.59,SW,225,2.0,2.5,73,0.00,,,0.12,WUHU216HW,2013-01-27 02:30:00,
2013-01-26 19:32:00,50.8,42.4,29.59,SSW,203,2.0,2.5,73,0.00,,,0.12,WUHU216HW,2013-01-27 02:32:00,
2013-01-26 19:33:00,50.8,42.4,29.59,SSW,203,2.0,2.5,73,0.00,,,0.12,WUHU216HW,2013-01-27 02:33:00,
2013-01-26 19:35:00,50.8,42.1,29.59,SSW,203,1.3,2.5,72,0.00,,,0.12,WUHU216HW,2013-01-27 02:35:00,
2013-01-26 19:38:00,50.8,42.1,29.59,SSW,203,1.1,2.5,72,0.00,,,0.12,WUHU216HW,2013-01-27 02:38:00,
2013-01-26 19:41:00,50.9,42.3,29.59,SSW,203,0.4,2.0,72,0.00,,,0.12,WUHU216HW,2013-01-27 02:41:00,
2013-01-26 19:43:00,50.8,42.1,29.59,SSW,203,0.0,1.8,72,0.00,,,0.12,WUHU216HW,2013-01-27 02:43:00,
2013-01-26 19:46:00,50.8,42.1,29.59,West,270,0.7,1.8,72,0.00,,,0.12,WUHU216HW,2013-01-27 02:46:00,
2013-01-26 19:48:00,50.8,42.1,29.59,WNW,293,0.2,1.8,72,0.00,,,0.12,WUHU216HW,2013-01-27 02:48:00,
2013-01-26 19:51:00,50.9,42.3,29.59,WNW,293,0.0,0.9,72,0.00,,,0.12,WUHU216HW,2013-01-27 02:51:00,
2013-01-26 19:53:00,50.9,42.3,29.59,WNW,293,0.0,0.9,72,0.00,,,0.12,WUHU216HW,2013-01-27 02:53:00,
2013-01-26 19:54:00,50.8,42.1,29.59,WNW,293,0.0,0.9,72,0.00,,,0.12,WUHU216HW,2013-01-27 02:54:00,
2013-01-26 19:56:00,50.9,42.3,29.59,WNW,293,0.0,0.4,72,0.00,,,0.12,WUHU216HW,2013-01-27 02:56:00,
2013-01-26 19:58:00,50.8,42.1,29.59,WNW,293,0.0,0.4,72,0.00,,,0.12,WUHU216HW,2013-01-27 02:58:00,
2013-01-26 19:59:00,50.9,42.3,29.59,NW,315,1.8,1.8,72,0.00,,,0.12,WUHU216HW,2013-01-27 02:59:00,
2013-01-26 20:01:00,50.8,42.1,29.59,NW,315,1.8,2.7,72,0.00,,,0.12,WUHU216HW,2013-01-27 03:01:00,
2013-01-26 20:03:00,50.8,41.8,29.59,NW,315,0.9,2.7,71,0.00,,,0.12,WUHU216HW,2013-01-27 03:03:00,
2013-01-26 20:04:00,50.8,41.8,29.59,NW,315,0.4,2.7,71,0.00,,,0.12,WUHU216HW,2013-01-27 03:04:00,
2013-01-26 20:06:00,50.8,42.1,29.59,NW,315,0.0,2.7,72,0.00,,,0.12,WUHU216HW,2013-01-27 03:06:00,
2013-01-26 20:08:00,50.8,42.1,29.59,NW,315,0.0,2.7,72,0.00,,,0.12,WUHU216HW,2013-01-27 03:08:00,
2013-01-26 20:09:00,50.8,42.1,29.59,NW,315,0.0,2.7,72,0.00,,,0.12,WUHU216HW,2013-01-27 03:09:00,
2013-01-26 20:11:00,50.8,42.1,29.59,NW,315,0.0,1.1,72,0.00,,,0.12,WUHU216HW,2013-01-27 03:11:00,
2013-01-26 20:13:00,50.8,42.1,29.59,NW,315,0.0,0.4,72,0.00,,,0.12,WUHU216HW,2013-01-27 03:13:00,
2013-01-26 20:14:00,50.8,42.1,29.59,NW,315,0.0,0.4,72,0.00,,,0.12,WUHU216HW,2013-01-27 03:14:00,
2013-01-26 20:16:00,50.8,42.1,29.58,NNW,338,0.2,0.2,72,0.00,,,0.12,WUHU216HW,2013-01-27 03:16:00,
2013-01-26 20:19:00,50.6,41.6,29.58,West,270,1.1,1.1,71,0.00,,,0.12,WUHU216HW,2013-01-27 03:19:00,
2013-01-26 20:21:00,50.6,42.0,29.58,WNW,293,1.8,1.8,72,0.00,,,0.12,WUHU216HW,2013-01-27 03:21:00,
2013-01-26 20:24:00,50.6,42.0,29.58,NW,315,0.4,1.8,72,0.00,,,0.12,WUHU216HW,2013-01-27 03:24:00,
2013-01-26 20:26:00,50.4,41.8,29.58,West,270,1.8,2.5,72,0.00,,,0.12,WUHU216HW,2013-01-27 03:26:00,
2013-01-26 20:29:00,50.4,41.8,29.58,West,270,1.8,2.5,72,0.00,,,0.12,WUHU216HW,2013-01-27 03:29:00,
2013-01-26 20:31:00,50.0,41.4,29.59,West,270,1.8,2.5,72,0.00,,,0.12,WUHU216HW,2013-01-27 03:31:00,
2013-01-26 20:34:00,50.0,41.4,29.59,NW,315,1.6,2.5,72,0.00,,,0.12,WUHU216HW,2013-01-27 03:34:00,
2013-01-26 20:37:00,49.9,41.2,29.59,West,270,2.7,2.7,72,0.00,,,0.12,WUHU216HW,2013-01-27 03:37:00,
2013-01-26 20:39:00,49.7,41.1,29.59,West,270,2.5,2.7,72,0.00,,,0.12,WUHU216HW,2013-01-27 03:39:00,
2013-01-26 20:40:00,49.7,41.1,29.59,NNW,338,1.6,2.7,72,0.00,,,0.12,WUHU216HW,2013-01-27 03:40:00,
2013-01-26 20:42:00,49.5,40.9,29.59,West,270,3.4,3.4,72,0.00,,,0.12,WUHU216HW,2013-01-27 03:42:00,
2013-01-26 20:44:00,49.5,40.9,29.59,WSW,248,2.7,3.4,72,0.00,,,0.12,WUHU216HW,2013-01-27 03:44:00,
2013-01-26 20:45:00,49.3,40.7,29.59,WSW,248,3.8,3.8,72,0.00,,,0.12,WUHU216HW,2013-01-27 03:45:00,
2013-01-26 20:47:00,49.3,40.7,29.59,WSW,248,2.5,3.8,72,0.00,,,0.12,WUHU216HW,2013-01-27 03:47:00,
2013-01-26 20:49:00,49.3,40.7,29.59,SW,225,3.1,3.8,72,0.00,,,0.12,WUHU216HW,2013-01-27 03:49:00,
2013-01-26 20:50:00,49.3,40.7,29.59,West,270,2.9,3.8,72,0.00,,,0.12,WUHU216HW,2013-01-27 03:50:00,
2013-01-26 20:52:00,49.3,40.7,29.59,West,270,2.5,3.8,72,0.00,,,0.12,WUHU216HW,2013-01-27 03:52:00,
2013-01-26 20:54:00,49.3,40.7,29.59,WSW,248,3.4,3.8,72,0.00,,,0.12,WUHU216HW,2013-01-27 03:54:00,
2013-01-26 20:55:00,49.1,40.5,29.59,WSW,248,3.4,3.4,72,0.00,,,0.12,WUHU216HW,2013-01-27 03:55:00,
2013-01-26 20:57:00,49.1,40.5,29.59,West,270,2.9,3.4,72,0.00,,,0.12,WUHU216HW,2013-01-27 03:57:00,
2013-01-26 20:59:00,49.1,40.5,29.59,West,270,3.1,3.4,72,0.00,,,0.12,WUHU216HW,2013-01-27 03:59:00,
2013-01-26 21:00:00,49.1,40.5,29.59,West,270,2.0,3.4,72,0.00,,,0.12,WUHU216HW,2013-01-27 04:00:00,
2013-01-26 21:02:00,49.0,40.3,29.59,WNW,293,2.7,3.4,72,0.00,,,0.12,WUHU216HW,2013-01-27 04:02:00,
2013-01-26 21:05:00,48.8,40.2,29.59,WSW,248,2.5,3.4,72,0.00,,,0.12,WUHU216HW,2013-01-27 04:05:00,
2013-01-26 21:07:00,48.8,40.2,29.59,WSW,248,2.9,3.1,72,0.00,,,0.12,WUHU216HW,2013-01-27 04:07:00,
2013-01-26 21:10:00,48.8,40.2,29.59,WNW,293,0.9,3.1,72,0.00,,,0.12,WUHU216HW,2013-01-27 04:10:00,
2013-01-26 21:13:00,48.8,40.2,29.59,West,270,1.3,3.1,72,0.00,,,0.12,WUHU216HW,2013-01-27 04:13:00,
2013-01-26 21:15:00,48.6,40.0,29.59,WSW,248,2.7,3.1,72,0.00,,,0.12,WUHU216HW,2013-01-27 04:15:00,
2013-01-26 21:18:00,48.6,40.0,29.59,West,270,3.4,3.4,72,0.00,,,0.12,WUHU216HW,2013-01-27 04:18:00,
2013-01-26 21:20:00,48.6,39.6,29.59,West,270,2.5,3.4,71,0.00,,,0.12,WUHU216HW,2013-01-27 04:20:00,
2013-01-26 21:23:00,48.6,39.6,29.59,NW,315,2.2,3.4,71,0.00,,,0.12,WUHU216HW,2013-01-27 04:23:00,
2013-01-26 21:25:00,48.6,39.6,29.59,WNW,293,1.1,3.4,71,0.00,,,0.12,WUHU216HW,2013-01-27 04:25:00,
2013-01-26 21:28:00,48.4,39.4,29.59,WNW,293,2.2,2.5,71,0.00,,,0.12,WUHU216HW,2013-01-27 04:28:00,
2013-01-26 21:30:00,48.4,39.4,29.59,West,270,2.5,2.5,71,0.00,,,0.12,WUHU216HW,2013-01-27 04:30:00,
2013-01-26 21:31:00,48.4,39.4,29.59,West,270,2.5,2.5,71,0.00,,,0.12,WUHU216HW,2013-01-27 04:31:00,
2013-01-26 21:33:00,48.2,39.3,29.59,West,270,2.5,3.4,71,0.00,,,0.12,WUHU216HW,2013-01-27 04:33:00,
2013-01-26 21:35:00,48.2,39.3,29.59,West,270,2.5,3.4,71,0.00,,,0.12,WUHU216HW,2013-01-27 04:35:00,
2013-01-26 21:36:00,48.2,39.3,29.59,West,270,2.5,3.4,71,0.00,,,0.12,WUHU216HW,2013-01-27 04:36:00,
2013-01-26 21:38:00,48.2,39.3,29.59,WSW,248,2.2,3.4,71,0.00,,,0.12,WUHU216HW,2013-01-27 04:38:00,
2013-01-26 21:40:00,48.2,39.6,29.59,WSW,248,1.8,3.4,72,0.00,,,0.12,WUHU216HW,2013-01-27 04:40:00,
2013-01-26 21:41:00,48.2,39.6,29.59,SW,225,1.8,3.4,72,0.00,,,0.12,WUHU216HW,2013-01-27 04:41:00,
2013-01-26 21:43:00,48.2,39.3,29.59,SSW,203,3.4,3.4,71,0.00,,,0.12,WUHU216HW,2013-01-27 04:43:00,
2013-01-26 21:45:00,48.2,39.6,29.59,South,180,2.5,3.4,72,0.00,,,0.12,WUHU216HW,2013-01-27 04:45:00,
2013-01-26 21:46:00,48.2,39.6,29.59,South,180,2.5,3.4,72,0.00,,,0.12,WUHU216HW,2013-01-27 04:46:00,
2013-01-26 21:48:00,48.1,39.4,29.59,SSW,203,2.5,3.4,72,0.00,,,0.12,WUHU216HW,2013-01-27 04:48:00,
2013-01-26 21:50:00,48.1,39.4,29.59,South,180,2.7,3.4,72,0.00,,,0.12,WUHU216HW,2013-01-27 04:50:00,
2013-01-26 21:51:00,48.1,39.4,29.59,SSW,203,2.5,3.4,72,0.00,,,0.12,WUHU216HW,2013-01-27 04:51:00,
2013-01-26 21:52:00,48.1,39.4,29.59,SSW,203,2.5,3.4,72,0.00,,,0.12,WUHU216HW,2013-01-27 04:52:00,
2013-01-26 21:53:00,48.1,39.4,29.59,SSW,203,2.9,4.0,72,0.00,,,0.12,WUHU216HW,2013-01-27 04:53:00,
2013-01-26 21:56:00,47.9,39.2,29.59,South,180,3.8,4.0,72,0.00,,,0.12,WUHU216HW,2013-01-27 04:56:00,
2013-01-26 21:57:00,47.9,39.2,29.59,South,180,3.1,4.0,72,0.00,,,0.12,WUHU216HW,2013-01-27 04:57:00,
2013-01-26 21:59:00,47.9,39.2,29.59,South,180,5.1,5.1,72,0.00,,,0.12,WUHU216HW,2013-01-27 04:59:00,
2013-01-26 22:00:00,47.7,39.1,29.59,South,180,4.9,5.1,72,0.00,,,0.12,WUHU216HW,2013-01-27 05:00:00,
2013-01-26 22:02:00,47.7,39.1,29.59,South,180,4.7,5.1,72,0.00,,,0.12,WUHU216HW,2013-01-27 05:02:00,
2013-01-26 22:06:00,47.5,38.9,29.58,South,180,4.7,6.0,72,0.00,,,0.12,WUHU216HW,2013-01-27 05:06:00,
2013-01-26 22:07:00,47.5,39.2,29.58,SW,225,5.4,6.0,73,0.00,,,0.12,WUHU216HW,2013-01-27 05:07:00,
2013-01-26 22:11:00,47.5,39.2,29.58,South,180,7.2,7.2,73,0.00,,,0.12,WUHU216HW,2013-01-27 05:11:00,
2013-01-26 22:12:00,47.5,39.2,29.58,SSW,203,4.7,7.2,73,0.00,,,0.12,WUHU216HW,2013-01-27 05:12:00,
2013-01-26 22:16:00,47.5,39.2,29.59,SW,225,3.4,7.2,73,0.00,,,0.12,WUHU216HW,2013-01-27 05:16:00,
2013-01-26 22:17:00,47.5,39.2,29.59,WSW,248,3.4,7.2,73,0.00,,,0.12,WUHU216HW,2013-01-27 05:17:00,
2013-01-26 22:18:00,47.5,39.2,29.59,WSW,248,2.7,7.2,73,0.00,,,0.12,WUHU216HW,2013-01-27 05:18:00,
2013-01-26 22:21:00,47.5,39.2,29.59,WNW,293,0.9,4.7,73,0.00,,,0.12,WUHU216HW,2013-01-27 05:21:00,
2013-01-26 22:22:00,47.5,38.9,29.59,West,270,1.6,4.5,72,0.00,,,0.12,WUHU216HW,2013-01-27 05:22:00,
2013-01-26 22:23:00,47.5,38.9,29.59,WSW,248,2.5,3.4,72,0.00,,,0.12,WUHU216HW,2013-01-27 05:23:00,
2013-01-26 22:27:00,47.7,39.1,29.59,SSW,203,1.1,3.4,72,0.00,,,0.12,WUHU216HW,2013-01-27 05:27:00,
2013-01-26 22:28:00,47.7,39.1,29.59,SW,225,0.9,2.7,72,0.00,,,0.12,WUHU216HW,2013-01-27 05:28:00,
2013-01-26 22:29:00,47.9,39.2,29.59,SSW,203,1.8,2.5,72,0.00,,,0.12,WUHU216HW,2013-01-27 05:29:00,
2013-01-26 22:32:00,47.9,39.2,29.59,SSW,203,3.4,4.0,72,0.00,,,0.12,WUHU216HW,2013-01-27 05:32:00,
2013-01-26 22:33:00,47.9,39.2,29.59,SSW,203,2.7,4.0,72,0.00,,,0.12,WUHU216HW,2013-01-27 05:33:00,
2013-01-26 22:34:00,47.9,39.2,29.59,SSW,203,2.7,4.0,72,0.00,,,0.12,WUHU216HW,2013-01-27 05:34:00,
2013-01-26 22:37:00,47.9,39.2,29.59,SSW,203,4.0,4.0,72,0.00,,,0.12,WUHU216HW,2013-01-27 05:37:00,
2013-01-26 22:38:00,47.9,39.2,29.59,SSW,203,3.4,4.0,72,0.00,,,0.12,WUHU216HW,2013-01-27 05:38:00,
2013-01-26 22:39:00,47.9,39.2,29.59,SSW,203,3.4,4.0,72,0.00,,,0.12,WUHU216HW,2013-01-27 05:39:00,
2013-01-26 22:42:00,47.9,39.2,29.59,SSW,203,1.6,4.0,72,0.00,,,0.12,WUHU216HW,2013-01-27 05:42:00,
2013-01-26 22:43:00,47.9,39.2,29.60,SW,225,2.0,4.0,72,0.00,,,0.12,WUHU216HW,2013-01-27 05:43:00,
2013-01-26 22:44:00,47.9,39.2,29.60,SW,225,2.0,4.0,72,0.00,,,0.12,WUHU216HW,2013-01-27 05:44:00,
2013-01-26 22:47:00,47.9,39.2,29.60,SSW,203,2.5,3.4,72,0.00,,,0.12,WUHU216HW,2013-01-27 05:47:00,
2013-01-26 22:48:00,47.9,39.2,29.60,SSW,203,2.2,3.4,72,0.00,,,0.12,WUHU216HW,2013-01-27 05:48:00,
2013-01-26 22:49:00,47.9,39.2,29.60,SSW,203,2.7,3.4,72,0.00,,,0.12,WUHU216HW,2013-01-27 05:49:00,
2013-01-26 22:52:00,47.9,39.2,29.60,SSW,203,1.8,3.4,72,0.00,,,0.12,WUHU216HW,2013-01-27 05:52:00,
2013-01-26 22:53:00,47.9,39.2,29.60,SSW,203,1.6,3.4,72,0.00,,,0.12,WUHU216HW,2013-01-27 05:53:00,
2013-01-26 22:54:00,47.9,39.2,29.60,SSW,203,1.6,3.4,72,0.00,,,0.12,WUHU216HW,2013-01-27 05:54:00,
2013-01-26 22:57:00,47.9,39.2,29.60,South,180,2.5,3.4,72,0.00,,,0.12,WUHU216HW,2013-01-27 05:57:00,
2013-01-26 22:58:00,47.9,39.2,29.60,SSW,203,3.4,3.4,72,0.00,,,0.12,WUHU216HW,2013-01-27 05:58:00,
2013-01-26 22:59:00,48.1,39.4,29.60,South,180,2.7,3.4,72,0.00,,,0.12,WUHU216HW,2013-01-27 05:59:00,
2013-01-26 23:02:00,48.1,39.4,29.60,SSW,203,4.7,4.7,72,0.00,,,0.12,WUHU216HW,2013-01-27 06:02:00,
2013-01-26 23:03:00,48.1,39.4,29.60,South,180,4.0,4.7,72,0.00,,,0.12,WUHU216HW,2013-01-27 06:03:00,
2013-01-26 23:04:00,48.1,39.4,29.60,South,180,5.4,5.4,72,0.00,,,0.12,WUHU216HW,2013-01-27 06:04:00,
2013-01-26 23:07:00,48.1,39.4,29.59,South,180,6.9,6.9,72,0.00,,,0.12,WUHU216HW,2013-01-27 06:07:00,
2013-01-26 23:08:00,48.1,39.4,29.59,South,180,5.6,6.9,72,0.00,,,0.12,WUHU216HW,2013-01-27 06:08:00,
2013-01-26 23:09:00,48.1,39.4,29.60,SSW,203,5.4,6.9,72,0.00,,,0.12,WUHU216HW,2013-01-27 06:09:00,
2013-01-26 23:12:00,48.1,39.4,29.59,SSW,203,4.7,6.9,72,0.00,,,0.12,WUHU216HW,2013-01-27 06:12:00,
2013-01-26 23:14:00,48.1,39.4,29.59,SSW,203,4.7,6.9,72,0.00,,,0.12,WUHU216HW,2013-01-27 06:14:00,
2013-01-26 23:15:00,48.1,39.4,29.59,SSW,203,4.7,6.9,72,0.00,,,0.12,WUHU216HW,2013-01-27 06:15:00,
2013-01-26 23:18:00,48.1,39.4,29.59,SW,225,4.5,5.6,72,0.00,,,0.12,WUHU216HW,2013-01-27 06:18:00,
2013-01-26 23:19:00,48.1,39.4,29.59,SSW,203,4.9,4.9,72,0.00,,,0.12,WUHU216HW,2013-01-27 06:19:00,
2013-01-26 23:20:00,48.1,39.4,29.59,SSW,203,4.9,4.9,72,0.00,,,0.12,WUHU216HW,2013-01-27 06:20:00,
2013-01-26 23:23:00,48.1,39.4,29.59,SW,225,7.4,7.4,72,0.00,,,0.12,WUHU216HW,2013-01-27 06:23:00,
2013-01-26 23:24:00,48.2,39.6,29.60,SSE,158,6.7,7.4,72,0.00,,,0.12,WUHU216HW,2013-01-27 06:24:00,
2013-01-26 23:25:00,48.2,39.6,29.60,SSE,158,6.7,7.4,72,0.00,,,0.12,WUHU216HW,2013-01-27 06:25:00,
2013-01-26 23:28:00,48.2,39.3,29.59,SSW,203,4.5,7.4,71,0.00,,,0.12,WUHU216HW,2013-01-27 06:28:00,
2013-01-26 23:29:00,48.4,39.4,29.60,South,180,4.7,7.4,71,0.00,,,0.12,WUHU216HW,2013-01-27 06:29:00,
2013-01-26 23:30:00,48.4,39.4,29.60,South,180,4.7,7.4,71,0.00,,,0.12,WUHU216HW,2013-01-27 06:30:00,
2013-01-26 23:33:00,48.6,39.6,29.60,South,180,5.4,7.8,71,0.00,,,0.12,WUHU216HW,2013-01-27 06:33:00,
2013-01-26 23:34:00,48.6,39.6,29.59,SSW,203,3.8,7.8,71,0.00,,,0.12,WUHU216HW,2013-01-27 06:34:00,
2013-01-26 23:35:00,48.6,39.6,29.59,SSW,203,3.8,7.8,71,0.00,,,0.12,WUHU216HW,2013-01-27 06:35:00,
2013-01-26 23:38:00,48.6,39.2,29.60,SSE,158,3.4,7.8,70,0.00,,,0.12,WUHU216HW,2013-01-27 06:38:00,
2013-01-26 23:40:00,48.6,39.2,29.60,South,180,3.4,7.8,70,0.00,,,0.12,WUHU216HW,2013-01-27 06:40:00,
2013-01-26 23:43:00,48.6,39.2,29.60,SSE,158,0.4,5.8,70,0.00,,,0.12,WUHU216HW,2013-01-27 06:43:00,
2013-01-26 23:45:00,48.6,39.2,29.60,ESE,113,0.7,4.3,70,0.00,,,0.12,WUHU216HW,2013-01-27 06:45:00,
2013-01-26 23:46:00,48.6,39.2,29.60,SW,225,1.8,4.3,70,0.00,,,0.12,WUHU216HW,2013-01-27 06:46:00,
2013-01-26 23:48:00,48.6,39.2,29.60,South,180,1.1,3.4,70,0.00,,,0.12,WUHU216HW,2013-01-27 06:48:00,
2013-01-26 23:50:00,48.6,39.2,29.60,SW,225,1.8,3.1,70,0.00,,,0.12,WUHU216HW,2013-01-27 06:50:00,
2013-01-26 23:51:00,48.6,39.2,29.60,SSW,203,2.5,3.1,70,0.00,,,0.12,WUHU216HW,2013-01-27 06:51:00,
2013-01-26 23:53:00,48.6,39.2,29.60,SSE,158,2.2,3.1,70,0.00,,,0.12,WUHU216HW,2013-01-27 06:53:00,
2013-01-26 23:55:00,48.6,39.2,29.60,SSW,203,2.7,3.1,70,0.00,,,0.12,WUHU216HW,2013-01-27 06:55:00,
2013-01-26 23:56:00,48.6,39.2,29.60,SSW,203,2.7,3.1,70,0.00,,,0.12,WUHU216HW,2013-01-27 06:56:00,
2013-01-26 23:58:00,48.6,39.2,29.60,SSE,158,0.4,2.7,70,0.00,,,0.12,WUHU216HW,2013-01-27 06:58:00,